Time,TemperatureF,DewpointF,PressureIn,WindDirection,WindDirectionDegrees,WindSpeedMPH,WindSpeedGustMPH,Humidity,HourlyPrecipIn,Conditions,Clouds,dailyrainin,SoftwareType,DateUTC
2013-03-17 00:00:00,33.7,30.0,30.01,NNE,28,1.0,7.0,86,0.00,,---,0.00,VWS V14.01,2013-03-17 05:00:00,
2013-03-17 00:04:00,33.6,29.9,30.00,NNE,30,3.0,6.0,86,0.00,,---,0.00,VWS V14.01,2013-03-17 05:04:00,
2013-03-17 00:05:00,33.6,29.9,30.01,NE,41,2.0,6.0,86,0.00,,---,0.00,VWS V14.01,2013-03-17 05:05:00,
2013-03-17 00:09:00,33.5,29.8,30.01,North,5,2.0,6.0,86,0.00,,---,0.00,VWS V14.01,2013-03-17 05:09:00,
2013-03-17 00:10:00,33.5,29.8,30.01,North,11,7.0,7.0,86,0.00,,---,0.00,VWS V14.01,2013-03-17 05:10:00,
2013-03-17 00:15:00,33.4,29.4,30.01,NE,43,3.0,7.0,85,0.00,,---,0.00,VWS V14.01,2013-03-17 05:15:00,
2013-03-17 00:20:00,33.4,29.4,30.01,ENE,57,6.0,8.0,85,0.00,,---,0.00,VWS V14.01,2013-03-17 05:20:00,
2013-03-17 00:21:00,33.4,29.4,30.00,North,355,4.0,8.0,85,0.00,,---,0.00,VWS V14.01,2013-03-17 05:21:00,
2013-03-17 00:25:00,33.3,29.3,30.00,NE,40,1.0,8.0,85,0.00,,---,0.00,VWS V14.01,2013-03-17 05:25:00,
2013-03-17 00:26:00,33.3,29.3,30.00,NE,51,3.0,8.0,85,0.00,,---,0.00,VWS V14.01,2013-03-17 05:26:00,
2013-03-17 00:27:00,33.3,29.3,30.01,NE,36,2.0,8.0,85,0.00,,---,0.00,VWS V14.01,2013-03-17 05:27:00,
2013-03-17 00:31:00,33.2,29.2,30.00,NNE,30,2.0,8.0,85,0.00,,---,0.00,VWS V14.01,2013-03-17 05:31:00,
2013-03-17 00:33:00,33.2,29.2,30.01,NE,55,0.0,6.0,85,0.00,,---,0.00,VWS V14.01,2013-03-17 05:33:00,
2013-03-17 00:36:00,33.2,29.2,30.01,NNE,32,3.0,6.0,85,0.00,,---,0.00,VWS V14.01,2013-03-17 05:36:00,
2013-03-17 00:38:00,33.1,29.1,30.00,NE,47,6.0,7.0,85,0.00,,---,0.00,VWS V14.01,2013-03-17 05:38:00,
2013-03-17 00:41:00,33.0,29.0,30.00,ENE,67,4.0,7.0,85,0.00,,---,0.00,VWS V14.01,2013-03-17 05:41:00,
2013-03-17 00:42:00,33.0,29.0,30.00,East,85,5.0,7.0,85,0.00,,---,0.00,VWS V14.01,2013-03-17 05:42:00,
2013-03-17 00:43:00,33.0,29.0,30.01,NNE,26,3.0,7.0,85,0.00,,---,0.00,VWS V14.01,2013-03-17 05:43:00,
2013-03-17 00:47:00,33.0,29.0,30.00,NE,53,4.0,10.0,85,0.00,,---,0.00,VWS V14.01,2013-03-17 05:47:00,
2013-03-17 00:48:00,32.9,28.9,30.00,NNE,27,3.0,10.0,85,0.00,,---,0.00,VWS V14.01,2013-03-17 05:48:00,
2013-03-17 00:52:00,32.9,28.9,30.01,NNE,26,4.0,10.0,85,0.00,,---,0.00,VWS V14.01,2013-03-17 05:52:00,
2013-03-17 00:53:00,32.9,28.9,30.01,NNE,32,4.0,10.0,85,0.00,,---,0.00,VWS V14.01,2013-03-17 05:53:00,
2013-03-17 00:57:00,32.8,28.8,30.01,NE,46,3.0,10.0,85,0.00,,---,0.00,VWS V14.01,2013-03-17 05:57:00,
2013-03-17 00:59:00,32.8,28.8,30.01,NNE,31,4.0,10.0,85,0.00,,---,0.00,VWS V14.01,2013-03-17 05:59:00,
2013-03-17 01:02:00,32.7,29.0,30.00,NE,41,2.0,5.0,86,0.00,,---,0.00,VWS V14.01,2013-03-17 06:02:00,
2013-03-17 01:04:00,32.7,29.0,30.00,North,350,3.0,7.0,86,0.00,,---,0.00,VWS V14.01,2013-03-17 06:04:00,
2013-03-17 01:07:00,32.6,28.6,30.01,ENE,67,5.0,10.0,85,0.00,,---,0.00,VWS V14.01,2013-03-17 06:07:00,
2013-03-17 01:09:00,32.6,28.6,30.01,ENE,57,6.0,10.0,85,0.00,,---,0.00,VWS V14.01,2013-03-17 06:09:00,
2013-03-17 01:12:00,32.6,28.6,30.01,NNE,14,3.0,10.0,85,0.00,,---,0.00,VWS V14.01,2013-03-17 06:12:00,
2013-03-17 01:14:00,32.5,28.5,30.00,NE,49,3.0,10.0,85,0.00,,---,0.00,VWS V14.01,2013-03-17 06:14:00,
2013-03-17 01:17:00,32.5,28.5,30.01,NE,34,3.0,10.0,85,0.00,,---,0.00,VWS V14.01,2013-03-17 06:17:00,
2013-03-17 01:19:00,32.5,28.8,30.01,NNE,26,1.0,10.0,86,0.00,,---,0.00,VWS V14.01,2013-03-17 06:19:00,
2013-03-17 01:22:00,32.5,28.8,30.02,NE,53,4.0,10.0,86,0.00,,---,0.00,VWS V14.01,2013-03-17 06:22:00,
2013-03-17 01:23:00,32.4,28.7,30.02,NE,44,5.0,10.0,86,0.00,,---,0.00,VWS V14.01,2013-03-17 06:23:00,
2013-03-17 01:24:00,32.4,28.7,30.01,ENE,68,2.0,10.0,86,0.00,,---,0.00,VWS V14.01,2013-03-17 06:24:00,
2013-03-17 01:27:00,32.4,28.7,30.01,NNE,17,3.0,10.0,86,0.00,,---,0.00,VWS V14.01,2013-03-17 06:27:00,
2013-03-17 01:28:00,32.4,28.7,30.01,ENE,58,4.0,10.0,86,0.00,,---,0.00,VWS V14.01,2013-03-17 06:28:00,
2013-03-17 01:29:00,32.4,28.7,30.01,NE,39,4.0,10.0,86,0.00,,---,0.00,VWS V14.01,2013-03-17 06:29:00,
2013-03-17 01:32:00,32.4,28.7,30.02,NE,40,6.0,7.0,86,0.00,,---,0.00,VWS V14.01,2013-03-17 06:32:00,
2013-03-17 01:33:00,32.3,28.6,30.01,NE,42,4.0,7.0,86,0.00,,---,0.00,VWS V14.01,2013-03-17 06:33:00,
2013-03-17 01:35:00,32.4,28.4,30.02,ENE,65,2.0,7.0,85,0.00,,---,0.00,VWS V14.01,2013-03-17 06:35:00,
2013-03-17 01:37:00,32.3,28.3,30.01,NE,41,2.0,8.0,85,0.00,,---,0.00,VWS V14.01,2013-03-17 06:37:00,
2013-03-17 01:38:00,32.3,28.3,30.01,NE,41,1.0,8.0,85,0.00,,---,0.00,VWS V14.01,2013-03-17 06:38:00,
2013-03-17 01:40:00,32.3,28.3,30.02,NNE,20,3.0,8.0,85,0.00,,---,0.00,VWS V14.01,2013-03-17 06:40:00,
2013-03-17 01:42:00,32.3,28.3,30.02,NE,40,1.0,8.0,85,0.00,,---,0.00,VWS V14.01,2013-03-17 06:42:00,
2013-03-17 01:43:00,32.3,28.3,30.02,NE,40,0.0,8.0,85,0.00,,---,0.00,VWS V14.01,2013-03-17 06:43:00,
2013-03-17 01:45:00,32.3,28.3,30.02,North,360,5.0,8.0,85,0.00,,---,0.00,VWS V14.01,2013-03-17 06:45:00,
2013-03-17 01:47:00,32.2,28.2,30.02,NE,37,4.0,8.0,85,0.00,,---,0.00,VWS V14.01,2013-03-17 06:47:00,
2013-03-17 01:48:00,32.2,28.2,30.02,NE,54,5.0,8.0,85,0.00,,---,0.00,VWS V14.01,2013-03-17 06:48:00,
2013-03-17 01:50:00,32.2,27.9,30.02,NE,54,6.0,8.0,84,0.00,,---,0.00,VWS V14.01,2013-03-17 06:50:00,
2013-03-17 01:53:00,32.1,28.1,30.02,NE,52,1.0,8.0,85,0.00,,---,0.00,VWS V14.01,2013-03-17 06:53:00,
2013-03-17 01:55:00,32.1,27.8,30.02,NE,44,2.0,8.0,84,0.00,,---,0.00,VWS V14.01,2013-03-17 06:55:00,
2013-03-17 01:58:00,32.1,28.1,30.02,NE,36,4.0,8.0,85,0.00,,---,0.00,VWS V14.01,2013-03-17 06:58:00,
2013-03-17 02:00:00,32.1,27.8,30.02,NNE,16,2.0,8.0,84,0.00,,---,0.00,VWS V14.01,2013-03-17 07:00:00,
2013-03-17 02:03:00,32.1,28.1,30.02,ENE,62,2.0,4.0,85,0.00,,---,0.00,VWS V14.01,2013-03-17 07:03:00,
2013-03-17 02:04:00,32.1,27.8,30.02,NNE,18,1.0,4.0,84,0.00,,---,0.00,VWS V14.01,2013-03-17 07:04:00,
2013-03-17 02:05:00,32.1,27.8,30.02,NE,34,2.0,4.0,84,0.00,,---,0.00,VWS V14.01,2013-03-17 07:05:00,
2013-03-17 02:08:00,32.0,28.0,30.02,NE,50,4.0,5.0,85,0.00,,---,0.00,VWS V14.01,2013-03-17 07:08:00,
2013-03-17 02:09:00,32.0,28.0,30.02,NNE,33,1.0,5.0,85,0.00,,---,0.00,VWS V14.01,2013-03-17 07:09:00,
2013-03-17 02:10:00,32.0,27.7,30.02,NE,35,5.0,5.0,84,0.00,,---,0.00,VWS V14.01,2013-03-17 07:10:00,
2013-03-17 02:13:00,32.0,27.7,30.02,NE,51,3.0,5.0,84,0.00,,---,0.00,VWS V14.01,2013-03-17 07:13:00,
2013-03-17 02:14:00,32.0,28.0,30.02,NNE,30,0.0,5.0,85,0.00,,---,0.00,VWS V14.01,2013-03-17 07:14:00,
2013-03-17 02:16:00,32.0,28.0,30.02,NNE,24,1.0,5.0,85,0.00,,---,0.00,VWS V14.01,2013-03-17 07:16:00,
2013-03-17 02:18:00,31.9,27.6,30.02,NNE,31,0.0,5.0,84,0.00,,---,0.00,VWS V14.01,2013-03-17 07:18:00,
2013-03-17 02:19:00,32.0,27.7,30.02,NNE,31,0.0,5.0,84,0.00,,---,0.00,VWS V14.01,2013-03-17 07:19:00,
2013-03-17 02:21:00,31.9,27.9,30.03,NNE,28,1.0,5.0,85,0.00,,---,0.00,VWS V14.01,2013-03-17 07:21:00,
2013-03-17 02:23:00,31.9,27.9,30.03,NNE,28,0.0,5.0,85,0.00,,---,0.00,VWS V14.01,2013-03-17 07:23:00,
2013-03-17 02:24:00,31.9,27.9,30.03,NNE,28,0.0,5.0,85,0.00,,---,0.00,VWS V14.01,2013-03-17 07:24:00,
2013-03-17 02:26:00,31.9,27.9,30.03,NNE,28,0.0,5.0,85,0.00,,---,0.00,VWS V14.01,2013-03-17 07:26:00,
2013-03-17 02:28:00,31.9,27.6,30.03,NE,46,2.0,5.0,84,0.00,,---,0.00,VWS V14.01,2013-03-17 07:28:00,
2013-03-17 02:29:00,31.9,27.6,30.02,NNE,27,2.0,5.0,84,0.00,,---,0.00,VWS V14.01,2013-03-17 07:29:00,
2013-03-17 02:31:00,31.9,27.6,30.02,NE,39,2.0,2.0,84,0.00,,---,0.00,VWS V14.01,2013-03-17 07:31:00,
2013-03-17 02:34:00,31.8,27.5,30.03,NE,42,2.0,4.0,84,0.00,,---,0.00,VWS V14.01,2013-03-17 07:34:00,
2013-03-17 02:36:00,31.8,27.5,30.03,NNE,27,3.0,4.0,84,0.00,,---,0.00,VWS V14.01,2013-03-17 07:36:00,
2013-03-17 02:39:00,31.8,27.5,30.03,NNE,31,1.0,4.0,84,0.00,,---,0.00,VWS V14.01,2013-03-17 07:39:00,
2013-03-17 02:42:00,31.8,27.2,30.03,NE,37,1.0,6.0,83,0.00,,---,0.00,VWS V14.01,2013-03-17 07:42:00,
2013-03-17 02:44:00,31.7,27.1,30.03,North,11,3.0,6.0,83,0.00,,---,0.00,VWS V14.01,2013-03-17 07:44:00,
2013-03-17 02:47:00,31.7,27.1,30.03,NE,37,2.0,7.0,83,0.00,,---,0.00,VWS V14.01,2013-03-17 07:47:00,
2013-03-17 02:49:00,31.7,27.1,30.03,NNW,340,3.0,7.0,83,0.00,,---,0.00,VWS V14.01,2013-03-17 07:49:00,
2013-03-17 02:50:00,31.7,27.1,30.03,NNE,21,2.0,7.0,83,0.00,,---,0.00,VWS V14.01,2013-03-17 07:50:00,
2013-03-17 02:52:00,31.7,27.1,30.03,NE,45,6.0,7.0,83,0.00,,---,0.00,VWS V14.01,2013-03-17 07:52:00,
2013-03-17 02:54:00,31.6,27.0,30.03,NE,34,6.0,7.0,83,0.00,,---,0.00,VWS V14.01,2013-03-17 07:54:00,
2013-03-17 02:55:00,31.6,27.0,30.02,NNE,22,2.0,7.0,83,0.00,,---,0.00,VWS V14.01,2013-03-17 07:55:00,
2013-03-17 02:57:00,31.6,27.0,30.02,NE,44,2.0,7.0,83,0.00,,---,0.00,VWS V14.01,2013-03-17 07:57:00,
2013-03-17 02:59:00,31.6,27.3,30.02,NE,37,1.0,7.0,84,0.00,,---,0.00,VWS V14.01,2013-03-17 07:59:00,
2013-03-17 03:00:00,31.6,27.3,30.02,NE,34,5.0,7.0,84,0.00,,---,0.00,VWS V14.01,2013-03-17 08:00:00,
2013-03-17 03:02:00,31.6,27.3,30.02,NNE,30,0.0,4.0,84,0.00,,---,0.00,VWS V14.01,2013-03-17 08:02:00,
2013-03-17 03:04:00,31.6,27.3,30.02,ENE,69,3.0,5.0,84,0.00,,---,0.00,VWS V14.01,2013-03-17 08:04:00,
2013-03-17 03:05:00,31.6,27.3,30.02,ENE,69,0.0,5.0,84,0.00,,---,0.00,VWS V14.01,2013-03-17 08:05:00,
2013-03-17 03:07:00,31.6,27.3,30.02,NE,50,3.0,5.0,84,0.00,,---,0.00,VWS V14.01,2013-03-17 08:07:00,
2013-03-17 03:09:00,31.5,27.2,30.03,NE,51,0.0,5.0,84,0.00,,---,0.00,VWS V14.01,2013-03-17 08:09:00,
2013-03-17 03:10:00,31.5,27.2,30.03,NE,51,1.0,5.0,84,0.00,,---,0.00,VWS V14.01,2013-03-17 08:10:00,
2013-03-17 03:12:00,31.5,27.2,30.03,NNE,25,0.0,6.0,84,0.00,,---,0.00,VWS V14.01,2013-03-17 08:12:00,
2013-03-17 03:14:00,31.5,27.2,30.03,NNE,25,0.0,6.0,84,0.00,,---,0.00,VWS V14.01,2013-03-17 08:14:00,
2013-03-17 03:15:00,31.5,27.2,30.02,NNE,15,7.0,7.0,84,0.00,,---,0.00,VWS V14.01,2013-03-17 08:15:00,
2013-03-17 03:18:00,31.5,27.2,30.02,NE,38,2.0,7.0,84,0.00,,---,0.00,VWS V14.01,2013-03-17 08:18:00,
2013-03-17 03:19:00,31.5,27.2,30.02,North,360,4.0,7.0,84,0.00,,---,0.00,VWS V14.01,2013-03-17 08:19:00,
2013-03-17 03:20:00,31.5,27.2,30.02,ENE,65,2.0,7.0,84,0.00,,---,0.00,VWS V14.01,2013-03-17 08:20:00,
2013-03-17 03:23:00,31.5,27.2,30.02,NNE,17,4.0,7.0,84,0.00,,---,0.00,VWS V14.01,2013-03-17 08:23:00,
2013-03-17 03:25:00,31.5,27.2,30.03,NNE,21,4.0,7.0,84,0.00,,---,0.00,VWS V14.01,2013-03-17 08:25:00,
2013-03-17 03:28:00,31.5,27.2,30.03,NNE,29,3.0,7.0,84,0.00,,---,0.00,VWS V14.01,2013-03-17 08:28:00,
2013-03-17 03:30:00,31.5,27.2,30.02,NNE,32,1.0,7.0,84,0.00,,---,0.00,VWS V14.01,2013-03-17 08:30:00,
2013-03-17 03:33:00,31.5,27.2,30.03,NE,37,1.0,4.0,84,0.00,,---,0.00,VWS V14.01,2013-03-17 08:33:00,
2013-03-17 03:35:00,31.4,27.1,30.02,ENE,65,1.0,4.0,84,0.00,,---,0.00,VWS V14.01,2013-03-17 08:35:00,
2013-03-17 03:38:00,31.4,27.1,30.03,NE,45,2.0,4.0,84,0.00,,---,0.00,VWS V14.01,2013-03-17 08:38:00,
2013-03-17 03:40:00,31.4,27.1,30.02,NE,49,3.0,4.0,84,0.00,,---,0.00,VWS V14.01,2013-03-17 08:40:00,
2013-03-17 03:43:00,31.4,27.1,30.02,ENE,57,0.0,4.0,84,0.00,,---,0.00,VWS V14.01,2013-03-17 08:43:00,
2013-03-17 03:45:00,31.4,27.1,30.03,ENE,59,2.0,4.0,84,0.00,,---,0.00,VWS V14.01,2013-03-17 08:45:00,
2013-03-17 03:46:00,31.4,27.1,30.03,NE,42,2.0,4.0,84,0.00,,---,0.00,VWS V14.01,2013-03-17 08:46:00,
2013-03-17 03:49:00,31.4,27.1,30.03,NE,40,0.0,4.0,84,0.00,,---,0.00,VWS V14.01,2013-03-17 08:49:00,
2013-03-17 03:50:00,31.4,27.1,30.03,NE,40,0.0,4.0,84,0.00,,---,0.00,VWS V14.01,2013-03-17 08:50:00,
2013-03-17 03:51:00,31.4,27.1,30.03,NE,40,0.0,4.0,84,0.00,,---,0.00,VWS V14.01,2013-03-17 08:51:00,
2013-03-17 03:54:00,31.4,27.1,30.03,NE,34,0.0,4.0,84,0.00,,---,0.00,VWS V14.01,2013-03-17 08:54:00,
2013-03-17 03:55:00,31.4,27.1,30.03,NE,34,0.0,4.0,84,0.00,,---,0.00,VWS V14.01,2013-03-17 08:55:00,
2013-03-17 03:56:00,31.4,27.1,30.04,NE,34,0.0,4.0,84,0.00,,---,0.00,VWS V14.01,2013-03-17 08:56:00,
2013-03-17 03:59:00,31.4,27.1,30.04,NE,34,0.0,4.0,84,0.00,,---,0.00,VWS V14.01,2013-03-17 08:59:00,
2013-03-17 04:00:00,31.4,27.1,30.03,NE,45,0.0,4.0,84,0.00,,---,0.00,VWS V14.01,2013-03-17 09:00:00,
2013-03-17 04:01:00,31.4,27.1,30.03,NE,45,0.0,0.0,84,0.00,,---,0.00,VWS V14.01,2013-03-17 09:01:00,
2013-03-17 04:04:00,31.4,27.1,30.03,NE,43,1.0,4.0,84,0.00,,---,0.00,VWS V14.01,2013-03-17 09:04:00,
2013-03-17 04:06:00,31.4,27.1,30.04,NE,36,1.0,5.0,84,0.00,,---,0.00,VWS V14.01,2013-03-17 09:06:00,
2013-03-17 04:07:00,31.4,27.1,30.04,North,5,3.0,5.0,84,0.00,,---,0.00,VWS V14.01,2013-03-17 09:07:00,
2013-03-17 04:09:00,31.4,27.1,30.04,NNE,26,1.0,5.0,84,0.00,,---,0.00,VWS V14.01,2013-03-17 09:09:00,
2013-03-17 04:11:00,31.4,27.1,30.04,NE,34,1.0,6.0,84,0.00,,---,0.00,VWS V14.01,2013-03-17 09:11:00,
2013-03-17 04:12:00,31.4,27.1,30.04,NNE,32,3.0,6.0,84,0.00,,---,0.00,VWS V14.01,2013-03-17 09:12:00,
2013-03-17 04:14:00,31.4,26.8,30.04,North,5,3.0,6.0,83,0.00,,---,0.00,VWS V14.01,2013-03-17 09:14:00,
2013-03-17 04:16:00,31.4,26.8,30.04,NNE,19,1.0,6.0,83,0.00,,---,0.00,VWS V14.01,2013-03-17 09:16:00,
2013-03-17 04:17:00,31.4,26.8,30.04,NNE,17,0.0,6.0,83,0.00,,---,0.00,VWS V14.01,2013-03-17 09:17:00,
2013-03-17 04:19:00,31.4,26.8,30.04,NNE,32,6.0,6.0,83,0.00,,---,0.00,VWS V14.01,2013-03-17 09:19:00,
2013-03-17 04:21:00,31.4,26.5,30.04,NE,51,2.0,6.0,82,0.00,,---,0.00,VWS V14.01,2013-03-17 09:21:00,
2013-03-17 04:22:00,31.4,26.5,30.05,NE,42,5.0,7.0,82,0.00,,---,0.00,VWS V14.01,2013-03-17 09:22:00,
2013-03-17 04:23:00,31.4,26.5,30.05,NE,44,5.0,7.0,82,0.00,,---,0.00,VWS V14.01,2013-03-17 09:23:00,
2013-03-17 04:24:00,31.4,26.2,30.05,NNE,19,3.0,7.0,81,0.00,,---,0.00,VWS V14.01,2013-03-17 09:24:00,
2013-03-17 04:26:00,31.4,26.2,30.05,NNE,25,2.0,7.0,81,0.00,,---,0.00,VWS V14.01,2013-03-17 09:26:00,
2013-03-17 04:27:00,31.4,26.2,30.05,NE,37,2.0,7.0,81,0.00,,---,0.00,VWS V14.01,2013-03-17 09:27:00,
2013-03-17 04:28:00,31.4,26.2,30.05,NE,43,2.0,7.0,81,0.00,,---,0.00,VWS V14.01,2013-03-17 09:28:00,
2013-03-17 04:30:00,31.4,26.2,30.05,NE,36,0.0,7.0,81,0.00,,---,0.00,VWS V14.01,2013-03-17 09:30:00,
2013-03-17 04:32:00,31.4,26.2,30.05,NE,38,3.0,4.0,81,0.00,,---,0.00,VWS V14.01,2013-03-17 09:32:00,
2013-03-17 04:33:00,31.4,26.2,30.05,NE,40,1.0,6.0,81,0.00,,---,0.00,VWS V14.01,2013-03-17 09:33:00,
2013-03-17 04:35:00,31.4,26.2,30.05,NE,40,2.0,6.0,81,0.00,,---,0.00,VWS V14.01,2013-03-17 09:35:00,
2013-03-17 04:37:00,31.4,26.2,30.05,NE,47,3.0,7.0,81,0.00,,---,0.00,VWS V14.01,2013-03-17 09:37:00,
2013-03-17 04:38:00,31.4,26.2,30.05,North,10,3.0,7.0,81,0.00,,---,0.00,VWS V14.01,2013-03-17 09:38:00,
2013-03-17 04:40:00,31.4,26.0,30.05,NE,37,2.0,7.0,80,0.00,,---,0.00,VWS V14.01,2013-03-17 09:40:00,
2013-03-17 04:42:00,31.4,26.2,30.05,NE,38,0.0,7.0,81,0.00,,---,0.00,VWS V14.01,2013-03-17 09:42:00,
2013-03-17 04:43:00,31.4,26.2,30.05,NE,36,0.0,7.0,81,0.00,,---,0.00,VWS V14.01,2013-03-17 09:43:00,
2013-03-17 04:45:00,31.4,26.0,30.05,NNE,31,2.0,7.0,80,0.00,,---,0.00,VWS V14.01,2013-03-17 09:45:00,
2013-03-17 04:47:00,31.4,26.0,30.05,NE,51,2.0,7.0,80,0.00,,---,0.00,VWS V14.01,2013-03-17 09:47:00,
2013-03-17 04:48:00,31.4,26.0,30.04,ENE,66,3.0,7.0,80,0.00,,---,0.00,VWS V14.01,2013-03-17 09:48:00,
2013-03-17 04:49:00,31.4,26.0,30.05,NE,44,3.0,7.0,80,0.00,,---,0.00,VWS V14.01,2013-03-17 09:49:00,
2013-03-17 04:50:00,31.3,25.9,30.04,NE,41,2.0,7.0,80,0.00,,---,0.00,VWS V14.01,2013-03-17 09:50:00,
2013-03-17 04:52:00,31.3,26.2,30.04,NE,54,1.0,7.0,81,0.00,,---,0.00,VWS V14.01,2013-03-17 09:52:00,
2013-03-17 04:53:00,31.3,26.2,30.04,NE,41,2.0,7.0,81,0.00,,---,0.00,VWS V14.01,2013-03-17 09:53:00,
2013-03-17 04:54:00,31.3,26.2,30.04,NE,40,4.0,7.0,81,0.00,,---,0.00,VWS V14.01,2013-03-17 09:54:00,
2013-03-17 04:55:00,31.3,26.2,30.04,ENE,70,1.0,7.0,81,0.00,,---,0.00,VWS V14.01,2013-03-17 09:55:00,
2013-03-17 04:57:00,31.2,26.1,30.04,NNE,26,2.0,7.0,81,0.00,,---,0.00,VWS V14.01,2013-03-17 09:57:00,
2013-03-17 04:58:00,31.2,26.1,30.04,NNE,28,5.0,7.0,81,0.00,,---,0.00,VWS V14.01,2013-03-17 09:58:00,
2013-03-17 04:59:00,31.2,26.1,30.04,ENE,74,4.0,7.0,81,0.00,,---,0.00,VWS V14.01,2013-03-17 09:59:00,
2013-03-17 05:01:00,31.2,26.1,30.04,NNE,23,3.0,7.0,81,0.00,,---,0.00,VWS V14.01,2013-03-17 10:01:00,
2013-03-17 05:02:00,31.2,26.1,30.04,NNE,15,3.0,4.0,81,0.00,,---,0.00,VWS V14.01,2013-03-17 10:02:00,
2013-03-17 05:03:00,31.2,26.1,30.04,NE,53,3.0,5.0,81,0.00,,---,0.00,VWS V14.01,2013-03-17 10:03:00,
2013-03-17 05:04:00,31.2,26.1,30.04,NE,36,3.0,5.0,81,0.00,,---,0.00,VWS V14.01,2013-03-17 10:04:00,
2013-03-17 05:06:00,31.2,26.1,30.04,ENE,59,3.0,5.0,81,0.00,,---,0.00,VWS V14.01,2013-03-17 10:06:00,
2013-03-17 05:08:00,31.2,26.1,30.04,NE,36,3.0,5.0,81,0.00,,---,0.00,VWS V14.01,2013-03-17 10:08:00,
2013-03-17 05:09:00,31.2,26.4,30.04,NE,51,3.0,5.0,82,0.00,,---,0.00,VWS V14.01,2013-03-17 10:09:00,
2013-03-17 05:12:00,31.2,26.1,30.04,ENE,59,3.0,9.0,81,0.00,,---,0.00,VWS V14.01,2013-03-17 10:12:00,
2013-03-17 05:13:00,31.2,26.1,30.04,NNE,26,4.0,9.0,81,0.00,,---,0.00,VWS V14.01,2013-03-17 10:13:00,
2013-03-17 05:14:00,31.2,26.1,30.04,NNE,26,4.0,9.0,81,0.00,,---,0.00,VWS V14.01,2013-03-17 10:14:00,
2013-03-17 05:17:00,31.2,26.1,30.04,NNE,22,3.0,9.0,81,0.00,,---,0.00,VWS V14.01,2013-03-17 10:17:00,
2013-03-17 05:18:00,31.2,26.1,30.04,ENE,73,3.0,9.0,81,0.00,,---,0.00,VWS V14.01,2013-03-17 10:18:00,
2013-03-17 05:19:00,31.2,26.1,30.04,ENE,73,3.0,9.0,81,0.00,,---,0.00,VWS V14.01,2013-03-17 10:19:00,
2013-03-17 05:20:00,31.2,26.1,30.04,NE,37,4.0,9.0,81,0.00,,---,0.00,VWS V14.01,2013-03-17 10:20:00,
2013-03-17 05:22:00,31.2,25.8,30.04,NE,39,5.0,9.0,80,0.00,,---,0.00,VWS V14.01,2013-03-17 10:22:00,
2013-03-17 05:23:00,31.2,25.8,30.04,NNE,32,3.0,9.0,80,0.00,,---,0.00,VWS V14.01,2013-03-17 10:23:00,
2013-03-17 05:24:00,31.2,25.8,30.04,North,5,5.0,9.0,80,0.00,,---,0.00,VWS V14.01,2013-03-17 10:24:00,
2013-03-17 05:25:00,31.2,25.8,30.04,North,355,3.0,9.0,80,0.00,,---,0.00,VWS V14.01,2013-03-17 10:25:00,
2013-03-17 05:27:00,31.2,25.8,30.04,NE,34,2.0,9.0,80,0.00,,---,0.00,VWS V14.01,2013-03-17 10:27:00,
2013-03-17 05:29:00,31.2,26.1,30.04,NNE,22,3.0,9.0,81,0.00,,---,0.00,VWS V14.01,2013-03-17 10:29:00,
2013-03-17 05:30:00,31.2,26.1,30.04,NNE,32,2.0,9.0,81,0.00,,---,0.00,VWS V14.01,2013-03-17 10:30:00,
2013-03-17 05:32:00,31.2,26.1,30.04,NNE,24,4.0,4.0,81,0.00,,---,0.00,VWS V14.01,2013-03-17 10:32:00,
2013-03-17 05:34:00,31.2,25.8,30.03,NE,36,4.0,6.0,80,0.00,,---,0.00,VWS V14.01,2013-03-17 10:34:00,
2013-03-17 05:35:00,31.2,25.8,30.03,NNE,32,2.0,6.0,80,0.00,,---,0.00,VWS V14.01,2013-03-17 10:35:00,
2013-03-17 05:37:00,31.1,25.7,30.04,NE,35,7.0,7.0,80,0.00,,---,0.00,VWS V14.01,2013-03-17 10:37:00,
2013-03-17 05:39:00,31.1,25.7,30.04,NE,35,7.0,7.0,80,0.00,,---,0.00,VWS V14.01,2013-03-17 10:39:00,
2013-03-17 05:40:00,31.1,25.7,30.04,NE,35,7.0,7.0,80,0.00,,---,0.00,VWS V14.01,2013-03-17 10:40:00,
2013-03-17 05:42:00,31.1,26.0,30.04,NE,45,1.0,7.0,81,0.00,,---,0.00,VWS V14.01,2013-03-17 10:42:00,
2013-03-17 05:44:00,31.1,26.0,30.03,NE,43,0.0,7.0,81,0.00,,---,0.00,VWS V14.01,2013-03-17 10:44:00,
2013-03-17 05:45:00,31.1,26.0,30.04,ENE,78,1.0,7.0,81,0.00,,---,0.00,VWS V14.01,2013-03-17 10:45:00,
2013-03-17 05:48:00,31.0,25.9,30.04,NE,44,5.0,7.0,81,0.00,,---,0.00,VWS V14.01,2013-03-17 10:48:00,
2013-03-17 05:49:00,31.0,25.6,30.04,East,83,2.0,7.0,80,0.00,,---,0.00,VWS V14.01,2013-03-17 10:49:00,
2013-03-17 05:50:00,31.0,25.6,30.04,NNE,32,5.0,7.0,80,0.00,,---,0.00,VWS V14.01,2013-03-17 10:50:00,
2013-03-17 05:53:00,31.0,25.6,30.04,North,5,5.0,7.0,80,0.00,,---,0.00,VWS V14.01,2013-03-17 10:53:00,
2013-03-17 05:54:00,31.0,25.6,30.04,NE,49,3.0,7.0,80,0.00,,---,0.00,VWS V14.01,2013-03-17 10:54:00,
2013-03-17 05:56:00,31.0,25.6,30.04,ENE,75,2.0,8.0,80,0.00,,---,0.00,VWS V14.01,2013-03-17 10:56:00,
2013-03-17 05:58:00,31.0,25.6,30.04,NE,52,3.0,9.0,80,0.00,,---,0.00,VWS V14.01,2013-03-17 10:58:00,
2013-03-17 05:59:00,31.0,25.6,30.04,ENE,76,3.0,9.0,80,0.00,,---,0.00,VWS V14.01,2013-03-17 10:59:00,
2013-03-17 06:00:00,31.0,25.6,30.04,NE,51,2.0,9.0,80,0.00,,---,0.00,VWS V14.01,2013-03-17 11:00:00,
2013-03-17 06:03:00,31.0,25.6,30.05,NE,36,1.0,9.0,80,0.00,,---,0.00,VWS V14.01,2013-03-17 11:03:00,
2013-03-17 06:04:00,31.0,25.6,30.05,NE,52,4.0,9.0,80,0.00,,---,0.00,VWS V14.01,2013-03-17 11:04:00,
2013-03-17 06:05:00,31.0,25.6,30.05,NE,38,3.0,9.0,80,0.00,,---,0.00,VWS V14.01,2013-03-17 11:05:00,
2013-03-17 06:06:00,31.0,25.6,30.05,ENE,76,3.0,9.0,80,0.00,,---,0.00,VWS V14.01,2013-03-17 11:06:00,
2013-03-17 06:08:00,31.0,25.6,30.05,NE,56,4.0,9.0,80,0.00,,---,0.00,VWS V14.01,2013-03-17 11:08:00,
2013-03-17 06:09:00,31.0,25.6,30.05,ENE,76,4.0,9.0,80,0.00,,---,0.00,VWS V14.01,2013-03-17 11:09:00,
2013-03-17 06:10:00,31.0,25.6,30.05,NNE,33,3.0,9.0,80,0.00,,---,0.00,VWS V14.01,2013-03-17 11:10:00,
2013-03-17 06:11:00,31.0,25.6,30.05,NE,38,1.0,9.0,80,0.00,,---,0.00,VWS V14.01,2013-03-17 11:11:00,
2013-03-17 06:13:00,31.0,25.6,30.05,NE,54,2.0,9.0,80,0.00,,---,0.00,VWS V14.01,2013-03-17 11:13:00,
2013-03-17 06:15:00,31.0,25.6,30.05,North,360,5.0,9.0,80,0.00,,---,0.00,VWS V14.01,2013-03-17 11:15:00,
2013-03-17 06:16:00,31.0,25.6,30.05,ENE,65,4.0,9.0,80,0.00,,---,0.00,VWS V14.01,2013-03-17 11:16:00,
2013-03-17 06:19:00,31.0,25.6,30.05,NE,38,3.0,9.0,80,0.00,,---,0.00,VWS V14.01,2013-03-17 11:19:00,
2013-03-17 06:20:00,31.0,25.6,30.05,NNE,32,4.0,9.0,80,0.00,,---,0.00,VWS V14.01,2013-03-17 11:20:00,
2013-03-17 06:22:00,31.0,25.6,30.05,NNE,19,3.0,11.0,80,0.00,,---,0.00,VWS V14.01,2013-03-17 11:22:00,
2013-03-17 06:24:00,31.0,25.3,30.05,NE,51,4.0,11.0,79,0.00,,---,0.00,VWS V14.01,2013-03-17 11:24:00,
2013-03-17 06:25:00,31.0,25.3,30.05,ENE,68,2.0,11.0,79,0.00,,---,0.00,VWS V14.01,2013-03-17 11:25:00,
2013-03-17 06:27:00,31.0,25.3,30.05,ENE,68,2.0,11.0,79,0.00,,---,0.00,VWS V14.01,2013-03-17 11:27:00,
2013-03-17 06:30:00,30.9,25.5,30.05,ENE,59,6.0,11.0,80,0.00,,---,0.00,VWS V14.01,2013-03-17 11:30:00,
2013-03-17 06:31:00,31.0,25.6,30.05,NNE,13,2.0,5.0,80,0.00,,---,0.00,VWS V14.01,2013-03-17 11:31:00,
2013-03-17 06:32:00,30.9,25.5,30.05,NNE,13,0.0,5.0,80,0.00,,---,0.00,VWS V14.01,2013-03-17 11:32:00,
2013-03-17 06:35:00,31.0,25.6,30.05,ESE,113,1.0,8.0,80,0.00,,---,0.00,VWS V14.01,2013-03-17 11:35:00,
2013-03-17 06:36:00,31.0,25.6,30.05,NNE,19,5.0,9.0,80,0.00,,---,0.00,VWS V14.01,2013-03-17 11:36:00,
2013-03-17 06:37:00,30.9,25.5,30.05,NE,52,4.0,9.0,80,0.00,,---,0.00,VWS V14.01,2013-03-17 11:37:00,
2013-03-17 06:40:00,30.9,25.5,30.05,NNE,13,9.0,9.0,80,0.00,,---,0.00,VWS V14.01,2013-03-17 11:40:00,
2013-03-17 06:41:00,30.9,25.5,30.06,ENE,65,0.0,9.0,80,0.00,,---,0.00,VWS V14.01,2013-03-17 11:41:00,
2013-03-17 06:42:00,30.9,25.5,30.06,NE,49,2.0,9.0,80,0.00,,---,0.00,VWS V14.01,2013-03-17 11:42:00,
2013-03-17 06:45:00,30.9,25.5,30.06,NE,44,2.0,9.0,80,0.00,,---,0.00,VWS V14.01,2013-03-17 11:45:00,
2013-03-17 06:46:00,30.9,25.5,30.06,NNE,31,4.0,9.0,80,0.00,,---,0.00,VWS V14.01,2013-03-17 11:46:00,
2013-03-17 06:47:00,30.9,25.5,30.06,NE,34,6.0,9.0,80,0.00,,---,0.00,VWS V14.01,2013-03-17 11:47:00,
2013-03-17 06:50:00,30.9,25.5,30.06,North,9,2.0,9.0,80,0.00,,---,0.00,VWS V14.01,2013-03-17 11:50:00,
2013-03-17 06:52:00,30.9,25.5,30.06,NNE,14,3.0,9.0,80,0.00,,---,0.00,VWS V14.01,2013-03-17 11:52:00,
2013-03-17 06:53:00,31.0,25.6,30.06,ENE,61,4.0,9.0,80,0.00,,---,0.00,VWS V14.01,2013-03-17 11:53:00,
2013-03-17 06:55:00,31.0,25.6,30.06,NE,44,2.0,9.0,80,0.00,,---,0.00,VWS V14.01,2013-03-17 11:55:00,
2013-03-17 06:57:00,31.0,25.6,30.06,ENE,74,4.0,9.0,80,0.00,,---,0.00,VWS V14.01,2013-03-17 11:57:00,
2013-03-17 06:58:00,30.9,25.5,30.06,NE,42,3.0,9.0,80,0.00,,---,0.00,VWS V14.01,2013-03-17 11:58:00,
2013-03-17 07:01:00,31.0,25.6,30.06,NNE,24,4.0,9.0,80,0.00,,---,0.00,VWS V14.01,2013-03-17 12:01:00,
2013-03-17 07:02:00,31.0,25.6,30.06,NNE,30,2.0,5.0,80,0.00,,---,0.00,VWS V14.01,2013-03-17 12:02:00,
2013-03-17 07:03:00,31.0,25.6,30.06,NNE,32,3.0,5.0,80,0.00,,---,0.00,VWS V14.01,2013-03-17 12:03:00,
2013-03-17 07:05:00,30.9,25.5,30.06,NNE,28,6.0,6.0,80,0.00,,---,0.00,VWS V14.01,2013-03-17 12:05:00,
2013-03-17 07:08:00,30.9,25.5,30.06,East,98,2.0,6.0,80,0.00,,---,0.00,VWS V14.01,2013-03-17 12:08:00,
2013-03-17 07:11:00,31.0,25.6,30.06,North,355,2.0,9.0,80,0.00,,---,0.00,VWS V14.01,2013-03-17 12:11:00,
2013-03-17 07:13:00,30.9,25.5,30.06,East,81,1.0,9.0,80,0.00,,---,0.00,VWS V14.01,2013-03-17 12:13:00,
2013-03-17 07:16:00,30.9,25.5,30.06,NNE,29,3.0,9.0,80,0.00,,---,0.00,VWS V14.01,2013-03-17 12:16:00,
2013-03-17 07:18:00,30.9,25.5,30.06,ENE,59,1.0,10.0,80,0.00,,---,0.00,VWS V14.01,2013-03-17 12:18:00,
2013-03-17 07:19:00,30.9,25.5,30.06,NNE,21,4.0,10.0,80,0.00,,---,0.00,VWS V14.01,2013-03-17 12:19:00,
2013-03-17 07:21:00,30.9,25.5,30.06,NNE,32,0.0,10.0,80,0.00,,---,0.00,VWS V14.01,2013-03-17 12:21:00,
2013-03-17 07:23:00,30.9,25.5,30.06,NE,38,3.0,10.0,80,0.00,,---,0.00,VWS V14.01,2013-03-17 12:23:00,
2013-03-17 07:24:00,30.9,25.5,30.06,East,84,5.0,10.0,80,0.00,,---,0.00,VWS V14.01,2013-03-17 12:24:00,
2013-03-17 07:26:00,30.9,25.5,30.06,ENE,60,2.0,10.0,80,0.00,,---,0.00,VWS V14.01,2013-03-17 12:26:00,
2013-03-17 07:28:00,30.9,25.5,30.06,NNE,32,3.0,10.0,80,0.00,,---,0.00,VWS V14.01,2013-03-17 12:28:00,
2013-03-17 07:29:00,30.8,25.4,30.06,NNE,31,3.0,10.0,80,0.00,,---,0.00,VWS V14.01,2013-03-17 12:29:00,
2013-03-17 07:31:00,30.9,25.5,30.06,NNE,16,4.0,6.0,80,0.00,,---,0.00,VWS V14.01,2013-03-17 12:31:00,
2013-03-17 07:33:00,30.9,25.5,30.06,NE,44,4.0,7.0,80,0.00,,---,0.00,VWS V14.01,2013-03-17 12:33:00,
2013-03-17 07:34:00,30.9,25.5,30.06,NE,40,3.0,7.0,80,0.00,,---,0.00,VWS V14.01,2013-03-17 12:34:00,
2013-03-17 07:37:00,30.9,25.5,30.07,NE,48,3.0,7.0,80,0.00,,---,0.00,VWS V14.01,2013-03-17 12:37:00,
2013-03-17 07:38:00,30.9,25.5,30.06,NE,43,6.0,7.0,80,0.00,,---,0.00,VWS V14.01,2013-03-17 12:38:00,
2013-03-17 07:40:00,30.9,25.5,30.06,NE,48,3.0,8.0,80,0.00,,---,0.00,VWS V14.01,2013-03-17 12:40:00,
2013-03-17 07:42:00,30.9,25.5,30.06,NE,40,5.0,8.0,80,0.00,,---,0.00,VWS V14.01,2013-03-17 12:42:00,
2013-03-17 07:43:00,30.9,25.5,30.06,NE,51,1.0,8.0,80,0.00,,---,0.00,VWS V14.01,2013-03-17 12:43:00,
2013-03-17 07:45:00,30.9,25.5,30.06,NE,34,4.0,8.0,80,0.00,,---,0.00,VWS V14.01,2013-03-17 12:45:00,
2013-03-17 07:47:00,30.9,25.5,30.06,ENE,59,4.0,8.0,80,0.00,,---,0.00,VWS V14.01,2013-03-17 12:47:00,
2013-03-17 07:49:00,30.9,25.5,30.06,NE,55,5.0,8.0,80,0.00,,---,0.00,VWS V14.01,2013-03-17 12:49:00,
2013-03-17 07:50:00,31.0,25.6,30.06,ENE,77,0.0,8.0,80,0.00,,---,0.00,VWS V14.01,2013-03-17 12:50:00,
2013-03-17 07:52:00,31.0,25.6,30.06,East,81,3.0,8.0,80,0.00,,---,0.00,VWS V14.01,2013-03-17 12:52:00,
2013-03-17 07:54:00,31.0,25.9,30.06,NE,53,0.0,8.0,81,0.00,,---,0.00,VWS V14.01,2013-03-17 12:54:00,
2013-03-17 07:55:00,31.0,25.6,30.06,NE,53,2.0,8.0,80,0.00,,---,0.00,VWS V14.01,2013-03-17 12:55:00,
2013-03-17 07:57:00,31.0,25.9,30.06,NE,53,8.0,8.0,81,0.00,,---,0.00,VWS V14.01,2013-03-17 12:57:00,
2013-03-17 07:59:00,31.0,25.6,30.06,NE,34,5.0,10.0,80,0.00,,---,0.00,VWS V14.01,2013-03-17 12:59:00,
2013-03-17 08:00:00,31.1,25.7,30.06,NNE,19,2.0,10.0,80,0.00,,---,0.00,VWS V14.01,2013-03-17 13:00:00,
2013-03-17 08:02:00,31.1,26.0,30.06,East,87,2.0,6.0,81,0.00,,---,0.00,VWS V14.01,2013-03-17 13:02:00,
2013-03-17 08:04:00,31.1,25.7,30.06,NE,36,3.0,6.0,80,0.00,,---,0.00,VWS V14.01,2013-03-17 13:04:00,
2013-03-17 08:06:00,31.1,26.0,30.06,ESE,114,2.0,6.0,81,0.00,,---,0.00,VWS V14.01,2013-03-17 13:06:00,
2013-03-17 08:07:00,31.1,26.0,30.06,NNE,33,4.0,6.0,81,0.00,,---,0.00,VWS V14.01,2013-03-17 13:07:00,
2013-03-17 08:09:00,31.2,26.1,30.06,East,90,1.0,7.0,81,0.00,,---,0.00,VWS V14.01,2013-03-17 13:09:00,
2013-03-17 08:11:00,31.2,26.1,30.06,NE,49,5.0,7.0,81,0.00,,---,0.00,VWS V14.01,2013-03-17 13:11:00,
2013-03-17 08:12:00,31.2,26.1,30.07,NE,51,2.0,7.0,81,0.00,,---,0.00,VWS V14.01,2013-03-17 13:12:00,
2013-03-17 08:14:00,31.2,26.1,30.07,East,96,2.0,7.0,81,0.00,,---,0.00,VWS V14.01,2013-03-17 13:14:00,
2013-03-17 08:15:00,31.3,26.2,30.07,NE,51,2.0,7.0,81,0.00,,---,0.00,VWS V14.01,2013-03-17 13:15:00,
2013-03-17 08:16:00,31.3,26.2,30.06,NE,51,1.0,7.0,81,0.00,,---,0.00,VWS V14.01,2013-03-17 13:16:00,
2013-03-17 08:17:00,31.3,26.2,30.06,ENE,61,1.0,7.0,81,0.00,,---,0.00,VWS V14.01,2013-03-17 13:17:00,
2013-03-17 08:19:00,31.4,26.2,30.06,NE,53,2.0,7.0,81,0.00,,---,0.00,VWS V14.01,2013-03-17 13:19:00,
2013-03-17 08:20:00,31.4,26.2,30.06,NNE,17,2.0,7.0,81,0.00,,---,0.00,VWS V14.01,2013-03-17 13:20:00,
2013-03-17 08:21:00,31.4,26.0,30.06,NE,45,3.0,7.0,80,0.00,,---,0.00,VWS V14.01,2013-03-17 13:21:00,
2013-03-17 08:22:00,31.4,26.0,30.06,NNE,28,5.0,7.0,80,0.00,,---,0.00,VWS V14.01,2013-03-17 13:22:00,
2013-03-17 08:24:00,31.4,26.0,30.06,ENE,59,3.0,12.0,80,0.00,,---,0.00,VWS V14.01,2013-03-17 13:24:00,
2013-03-17 08:25:00,31.5,26.0,30.06,NE,54,4.0,12.0,80,0.00,,---,0.00,VWS V14.01,2013-03-17 13:25:00,
2013-03-17 08:27:00,31.4,26.0,30.06,NNE,23,4.0,12.0,80,0.00,,---,0.00,VWS V14.01,2013-03-17 13:27:00,
2013-03-17 08:28:00,31.4,26.0,30.06,North,5,0.0,12.0,80,0.00,,---,0.00,VWS V14.01,2013-03-17 13:28:00,
2013-03-17 08:29:00,31.5,26.0,30.06,NNE,32,5.0,12.0,80,0.00,,---,0.00,VWS V14.01,2013-03-17 13:29:00,
2013-03-17 08:30:00,31.5,26.0,30.06,NNE,19,4.0,12.0,80,0.00,,---,0.00,VWS V14.01,2013-03-17 13:30:00,
2013-03-17 08:32:00,31.5,25.8,30.06,NE,34,3.0,11.0,79,0.00,,---,0.00,VWS V14.01,2013-03-17 13:32:00,
2013-03-17 08:33:00,31.5,25.8,30.06,North,10,3.0,11.0,79,0.00,,---,0.00,VWS V14.01,2013-03-17 13:33:00,
2013-03-17 08:34:00,31.5,26.0,30.06,East,84,1.0,11.0,80,0.00,,---,0.00,VWS V14.01,2013-03-17 13:34:00,
2013-03-17 08:35:00,31.5,26.0,30.05,ENE,60,1.0,11.0,80,0.00,,---,0.00,VWS V14.01,2013-03-17 13:35:00,
2013-03-17 08:37:00,31.5,25.8,30.06,NE,56,4.0,11.0,79,0.00,,---,0.00,VWS V14.01,2013-03-17 13:37:00,
2013-03-17 08:38:00,31.5,25.8,30.06,NE,48,1.0,11.0,79,0.00,,---,0.00,VWS V14.01,2013-03-17 13:38:00,
2013-03-17 08:40:00,31.5,25.8,30.06,NE,51,0.0,11.0,79,0.00,,---,0.00,VWS V14.01,2013-03-17 13:40:00,
2013-03-17 08:42:00,31.5,25.8,30.06,ENE,70,4.0,11.0,79,0.00,,---,0.00,VWS V14.01,2013-03-17 13:42:00,
2013-03-17 08:43:00,31.5,25.8,30.06,NNE,16,2.0,11.0,79,0.00,,---,0.00,VWS V14.01,2013-03-17 13:43:00,
2013-03-17 08:45:00,31.5,25.4,30.06,NNE,26,6.0,11.0,78,0.00,,---,0.00,VWS V14.01,2013-03-17 13:45:00,
2013-03-17 08:48:00,31.5,25.4,30.07,NE,40,6.0,11.0,78,0.00,,---,0.00,VWS V14.01,2013-03-17 13:48:00,
2013-03-17 08:50:00,31.6,25.9,30.07,ENE,78,0.0,11.0,79,0.00,,---,0.00,VWS V14.01,2013-03-17 13:50:00,
2013-03-17 08:51:00,31.6,25.9,30.07,NE,56,0.0,11.0,79,0.00,,---,0.00,VWS V14.01,2013-03-17 13:51:00,
2013-03-17 08:53:00,31.6,25.5,30.07,ENE,61,6.0,11.0,78,0.00,,---,0.00,VWS V14.01,2013-03-17 13:53:00,
2013-03-17 08:55:00,31.6,25.5,30.08,ENE,57,5.0,11.0,78,0.00,,---,0.00,VWS V14.01,2013-03-17 13:55:00,
2013-03-17 08:57:00,31.6,25.5,30.07,ESE,111,3.0,14.0,78,0.00,,---,0.00,VWS V14.01,2013-03-17 13:57:00,
2013-03-17 08:58:00,31.6,25.5,30.07,NE,34,7.0,14.0,78,0.00,,---,0.00,VWS V14.01,2013-03-17 13:58:00,
2013-03-17 09:00:00,31.6,25.5,30.07,ENE,65,1.0,14.0,78,0.00,,---,0.00,VWS V14.01,2013-03-17 14:00:00,
2013-03-17 09:02:00,31.7,25.9,30.07,ENE,60,0.0,1.0,79,0.00,,---,0.00,VWS V14.01,2013-03-17 14:02:00,
2013-03-17 09:03:00,31.7,25.9,30.07,NNE,32,4.0,7.0,79,0.00,,---,0.00,VWS V14.01,2013-03-17 14:03:00,
2013-03-17 09:05:00,31.8,25.7,30.08,ENE,62,1.0,9.0,78,0.00,,---,0.00,VWS V14.01,2013-03-17 14:05:00,
2013-03-17 09:07:00,31.8,25.7,30.08,ENE,61,2.0,9.0,78,0.00,,---,0.00,VWS V14.01,2013-03-17 14:07:00,
2013-03-17 09:08:00,31.9,25.8,30.08,East,94,1.0,9.0,78,0.00,,---,0.00,VWS V14.01,2013-03-17 14:08:00,
2013-03-17 09:09:00,31.9,25.8,30.07,East,94,0.0,9.0,78,0.00,,---,0.00,VWS V14.01,2013-03-17 14:09:00,
2013-03-17 09:10:00,32.0,26.2,30.07,ENE,69,1.0,9.0,79,0.00,,---,0.00,VWS V14.01,2013-03-17 14:10:00,
2013-03-17 09:12:00,32.0,26.2,30.07,ESE,115,1.0,9.0,79,0.00,,---,0.00,VWS V14.01,2013-03-17 14:12:00,
2013-03-17 09:13:00,32.1,26.3,30.07,NNE,29,5.0,9.0,79,0.00,,---,0.00,VWS V14.01,2013-03-17 14:13:00,
2013-03-17 09:14:00,32.1,26.3,30.07,NE,54,7.0,9.0,79,0.00,,---,0.00,VWS V14.01,2013-03-17 14:14:00,
2013-03-17 09:16:00,32.1,26.0,30.07,NNE,26,0.0,9.0,78,0.00,,---,0.00,VWS V14.01,2013-03-17 14:16:00,
2013-03-17 09:17:00,32.1,26.0,30.07,NNE,15,9.0,11.0,78,0.00,,---,0.00,VWS V14.01,2013-03-17 14:17:00,
2013-03-17 09:18:00,32.1,26.0,30.07,NE,37,2.0,11.0,78,0.00,,---,0.00,VWS V14.01,2013-03-17 14:18:00,
2013-03-17 09:19:00,32.0,25.9,30.07,NE,38,2.0,11.0,78,0.00,,---,0.00,VWS V14.01,2013-03-17 14:19:00,
2013-03-17 09:21:00,32.1,26.3,30.08,ENE,61,1.0,11.0,79,0.00,,---,0.00,VWS V14.01,2013-03-17 14:21:00,
2013-03-17 09:22:00,32.1,26.3,30.08,ENE,58,1.0,11.0,79,0.00,,---,0.00,VWS V14.01,2013-03-17 14:22:00,
2013-03-17 09:24:00,32.1,26.0,30.08,NNE,22,3.0,11.0,78,0.00,,---,0.00,VWS V14.01,2013-03-17 14:24:00,
2013-03-17 09:27:00,32.1,26.0,30.08,NE,49,2.0,11.0,78,0.00,,---,0.00,VWS V14.01,2013-03-17 14:27:00,
2013-03-17 09:29:00,32.2,26.1,30.07,NE,54,4.0,11.0,78,0.00,,---,0.00,VWS V14.01,2013-03-17 14:29:00,
2013-03-17 09:30:00,32.2,26.1,30.07,NE,34,2.0,11.0,78,0.00,,---,0.00,VWS V14.01,2013-03-17 14:30:00,
2013-03-17 09:32:00,32.3,26.5,30.07,NE,40,3.0,4.0,79,0.00,,---,0.00,VWS V14.01,2013-03-17 14:32:00,
2013-03-17 09:33:00,32.3,26.5,30.07,NNE,24,1.0,4.0,79,0.00,,---,0.00,VWS V14.01,2013-03-17 14:33:00,
2013-03-17 09:34:00,32.3,26.5,30.07,ENE,65,1.0,4.0,79,0.00,,---,0.00,VWS V14.01,2013-03-17 14:34:00,
2013-03-17 09:35:00,32.4,26.6,30.07,NE,34,2.0,4.0,79,0.00,,---,0.00,VWS V14.01,2013-03-17 14:35:00,
2013-03-17 09:37:00,32.5,26.4,30.07,ESE,119,1.0,5.0,78,0.00,,---,0.00,VWS V14.01,2013-03-17 14:37:00,
2013-03-17 09:38:00,32.5,26.4,30.07,NE,51,2.0,5.0,78,0.00,,---,0.00,VWS V14.01,2013-03-17 14:38:00,
2013-03-17 09:39:00,32.5,26.4,30.06,NNE,28,2.0,5.0,78,0.00,,---,0.00,VWS V14.01,2013-03-17 14:39:00,
2013-03-17 09:40:00,32.6,26.5,30.06,NNE,16,4.0,5.0,78,0.00,,---,0.00,VWS V14.01,2013-03-17 14:40:00,
2013-03-17 09:42:00,32.6,26.5,30.07,East,80,4.0,8.0,78,0.00,,---,0.00,VWS V14.01,2013-03-17 14:42:00,
2013-03-17 09:43:00,32.6,26.5,30.07,NE,50,3.0,8.0,78,0.00,,---,0.00,VWS V14.01,2013-03-17 14:43:00,
2013-03-17 09:44:00,32.6,26.5,30.07,NNE,30,2.0,8.0,78,0.00,,---,0.00,VWS V14.01,2013-03-17 14:44:00,
2013-03-17 09:45:00,32.6,26.5,30.07,ESE,103,2.0,8.0,78,0.00,,---,0.00,VWS V14.01,2013-03-17 14:45:00,
2013-03-17 09:47:00,32.6,26.5,30.07,NE,36,2.0,8.0,78,0.00,,---,0.00,VWS V14.01,2013-03-17 14:47:00,
2013-03-17 09:48:00,32.6,26.5,30.07,ENE,70,1.0,8.0,78,0.00,,---,0.00,VWS V14.01,2013-03-17 14:48:00,
2013-03-17 09:49:00,32.7,26.6,30.07,NE,41,2.0,8.0,78,0.00,,---,0.00,VWS V14.01,2013-03-17 14:49:00,
2013-03-17 09:50:00,32.8,27.0,30.06,North,360,5.0,8.0,79,0.00,,---,0.00,VWS V14.01,2013-03-17 14:50:00,
2013-03-17 09:53:00,32.8,26.7,30.06,NE,38,3.0,8.0,78,0.00,,---,0.00,VWS V14.01,2013-03-17 14:53:00,
2013-03-17 09:54:00,32.7,26.6,30.06,East,91,6.0,10.0,78,0.00,,---,0.00,VWS V14.01,2013-03-17 14:54:00,
2013-03-17 09:55:00,32.7,26.6,30.06,NE,38,3.0,10.0,78,0.00,,---,0.00,VWS V14.01,2013-03-17 14:55:00,
2013-03-17 09:58:00,32.7,26.6,30.06,NE,46,10.0,10.0,78,0.00,,---,0.00,VWS V14.01,2013-03-17 14:58:00,
2013-03-17 09:59:00,32.7,26.6,30.06,East,88,0.0,10.0,78,0.00,,---,0.00,VWS V14.01,2013-03-17 14:59:00,
2013-03-17 10:00:00,32.8,26.7,30.06,NE,41,3.0,10.0,78,0.00,,---,0.00,VWS V14.01,2013-03-17 15:00:00,
2013-03-17 10:03:00,32.8,26.7,30.06,NE,41,4.0,7.0,78,0.00,,---,0.00,VWS V14.01,2013-03-17 15:03:00,
2013-03-17 10:05:00,32.8,26.7,30.06,ESE,109,0.0,9.0,78,0.00,,---,0.00,VWS V14.01,2013-03-17 15:05:00,
2013-03-17 10:08:00,32.9,26.8,30.06,NE,51,8.0,12.0,78,0.00,,---,0.00,VWS V14.01,2013-03-17 15:08:00,
2013-03-17 10:10:00,32.9,26.8,30.06,NE,39,2.0,12.0,78,0.00,,---,0.00,VWS V14.01,2013-03-17 15:10:00,
2013-03-17 10:13:00,33.0,26.9,30.06,ENE,73,3.0,12.0,78,0.00,,---,0.00,VWS V14.01,2013-03-17 15:13:00,
2013-03-17 10:15:00,33.0,26.9,30.06,NE,37,2.0,12.0,78,0.00,,---,0.00,VWS V14.01,2013-03-17 15:15:00,
2013-03-17 10:16:00,33.1,27.0,30.06,North,9,0.0,12.0,78,0.00,,---,0.00,VWS V14.01,2013-03-17 15:16:00,
2013-03-17 10:18:00,33.2,27.1,30.06,East,94,1.0,12.0,78,0.00,,---,0.00,VWS V14.01,2013-03-17 15:18:00,
2013-03-17 10:20:00,33.3,27.2,30.06,NE,43,2.0,12.0,78,0.00,,---,0.00,VWS V14.01,2013-03-17 15:20:00,
2013-03-17 10:21:00,33.3,27.2,30.06,ESE,118,4.0,12.0,78,0.00,,---,0.00,VWS V14.01,2013-03-17 15:21:00,
2013-03-17 10:24:00,33.4,27.3,30.06,NNE,30,7.0,12.0,78,0.00,,---,0.00,VWS V14.01,2013-03-17 15:24:00,
2013-03-17 10:25:00,33.5,27.4,30.06,ESE,103,1.0,12.0,78,0.00,,---,0.00,VWS V14.01,2013-03-17 15:25:00,
2013-03-17 10:26:00,33.5,27.4,30.06,NNE,26,6.0,12.0,78,0.00,,---,0.00,VWS V14.01,2013-03-17 15:26:00,
2013-03-17 10:29:00,33.6,27.2,30.06,SE,136,4.0,12.0,77,0.00,,---,0.00,VWS V14.01,2013-03-17 15:29:00,
2013-03-17 10:30:00,33.6,27.2,30.06,NE,52,1.0,12.0,77,0.00,,---,0.00,VWS V14.01,2013-03-17 15:30:00,
2013-03-17 10:31:00,33.6,27.2,30.06,NE,52,0.0,4.0,77,0.00,,---,0.00,VWS V14.01,2013-03-17 15:31:00,
2013-03-17 10:34:00,33.7,27.3,30.06,ENE,61,0.0,7.0,77,0.00,,---,0.00,VWS V14.01,2013-03-17 15:34:00,
2013-03-17 10:35:00,33.7,27.6,30.06,NE,37,4.0,7.0,78,0.00,,---,0.00,VWS V14.01,2013-03-17 15:35:00,
2013-03-17 10:37:00,33.8,27.4,30.06,SE,136,5.0,7.0,77,0.00,,---,0.00,VWS V14.01,2013-03-17 15:37:00,
2013-03-17 10:39:00,33.8,27.4,30.06,NNE,20,2.0,7.0,77,0.00,,---,0.00,VWS V14.01,2013-03-17 15:39:00,
2013-03-17 10:40:00,33.8,27.4,30.06,ENE,74,1.0,7.0,77,0.00,,---,0.00,VWS V14.01,2013-03-17 15:40:00,
2013-03-17 10:42:00,33.8,27.4,30.06,ENE,64,2.0,7.0,77,0.00,,---,0.00,VWS V14.01,2013-03-17 15:42:00,
2013-03-17 10:44:00,33.9,27.5,30.06,ENE,64,1.0,9.0,77,0.00,,---,0.00,VWS V14.01,2013-03-17 15:44:00,
2013-03-17 10:45:00,33.9,27.5,30.06,NNE,33,13.0,13.0,77,0.00,,---,0.00,VWS V14.01,2013-03-17 15:45:00,
2013-03-17 10:47:00,33.9,27.5,30.06,East,98,1.0,13.0,77,0.00,,---,0.00,VWS V14.01,2013-03-17 15:47:00,
2013-03-17 10:49:00,34.0,27.6,30.06,SE,135,2.0,13.0,77,0.00,,---,0.00,VWS V14.01,2013-03-17 15:49:00,
2013-03-17 10:51:00,34.0,27.6,30.06,ENE,74,3.0,13.0,77,0.00,,---,0.00,VWS V14.01,2013-03-17 15:51:00,
2013-03-17 10:52:00,34.0,27.2,30.06,East,87,0.0,13.0,76,0.00,,---,0.00,VWS V14.01,2013-03-17 15:52:00,
2013-03-17 10:54:00,34.0,27.6,30.06,NE,56,2.0,13.0,77,0.00,,---,0.00,VWS V14.01,2013-03-17 15:54:00,
2013-03-17 10:56:00,34.0,27.6,30.07,NNE,24,5.0,13.0,77,0.00,,---,0.00,VWS V14.01,2013-03-17 15:56:00,
2013-03-17 10:57:00,33.9,27.5,30.06,ENE,74,3.0,13.0,77,0.00,,---,0.00,VWS V14.01,2013-03-17 15:57:00,
2013-03-17 10:59:00,33.8,27.4,30.06,NE,45,2.0,13.0,77,0.00,,---,0.00,VWS V14.01,2013-03-17 15:59:00,
2013-03-17 11:00:00,33.8,27.4,30.06,SE,126,2.0,13.0,77,0.00,,---,0.00,VWS V14.01,2013-03-17 16:00:00,
2013-03-17 11:02:00,33.8,27.4,30.06,NNE,29,5.0,7.0,77,0.00,,---,0.00,VWS V14.01,2013-03-17 16:02:00,
2013-03-17 11:04:00,33.7,27.3,30.06,ESE,113,1.0,7.0,77,0.00,,---,0.00,VWS V14.01,2013-03-17 16:04:00,
2013-03-17 11:05:00,33.7,27.3,30.06,NE,39,3.0,7.0,77,0.00,,---,0.00,VWS V14.01,2013-03-17 16:05:00,
2013-03-17 11:06:00,33.8,27.4,30.06,NNE,30,1.0,7.0,77,0.00,,---,0.00,VWS V14.01,2013-03-17 16:06:00,
2013-03-17 11:08:00,33.8,27.4,30.06,ENE,68,0.0,7.0,77,0.00,,---,0.00,VWS V14.01,2013-03-17 16:08:00,
2013-03-17 11:10:00,33.8,27.4,30.06,NE,44,1.0,7.0,77,0.00,,---,0.00,VWS V14.01,2013-03-17 16:10:00,
2013-03-17 11:12:00,33.9,27.5,30.06,SE,131,5.0,11.0,77,0.00,,---,0.00,VWS V14.01,2013-03-17 16:12:00,
2013-03-17 11:13:00,33.9,27.5,30.06,East,98,2.0,11.0,77,0.00,,---,0.00,VWS V14.01,2013-03-17 16:13:00,
2013-03-17 11:15:00,34.0,27.6,30.06,ENE,63,1.0,11.0,77,0.00,,---,0.00,VWS V14.01,2013-03-17 16:15:00,
2013-03-17 11:17:00,34.0,27.6,30.06,ENE,64,0.0,11.0,77,0.00,,---,0.00,VWS V14.01,2013-03-17 16:17:00,
2013-03-17 11:18:00,34.1,27.7,30.06,NE,41,3.0,11.0,77,0.00,,---,0.00,VWS V14.01,2013-03-17 16:18:00,
2013-03-17 11:20:00,34.1,27.7,30.06,North,355,2.0,11.0,77,0.00,,---,0.00,VWS V14.01,2013-03-17 16:20:00,
2013-03-17 11:22:00,34.0,27.6,30.06,East,99,2.0,11.0,77,0.00,,---,0.00,VWS V14.01,2013-03-17 16:22:00,
2013-03-17 11:23:00,34.0,27.6,30.06,NE,50,1.0,11.0,77,0.00,,---,0.00,VWS V14.01,2013-03-17 16:23:00,
2013-03-17 11:25:00,33.9,27.5,30.06,ESE,105,8.0,11.0,77,0.00,,---,0.00,VWS V14.01,2013-03-17 16:25:00,
2013-03-17 11:27:00,33.9,27.5,30.06,ESE,120,4.0,11.0,77,0.00,,---,0.00,VWS V14.01,2013-03-17 16:27:00,
2013-03-17 11:28:00,33.9,27.5,30.06,East,95,0.0,11.0,77,0.00,,---,0.00,VWS V14.01,2013-03-17 16:28:00,
2013-03-17 11:30:00,33.9,27.5,30.06,NE,47,1.0,11.0,77,0.00,,---,0.00,VWS V14.01,2013-03-17 16:30:00,
2013-03-17 11:33:00,34.0,27.6,30.06,ENE,71,1.0,3.0,77,0.00,,---,0.00,VWS V14.01,2013-03-17 16:33:00,
2013-03-17 11:35:00,34.1,27.7,30.06,SE,144,3.0,4.0,77,0.00,,---,0.00,VWS V14.01,2013-03-17 16:35:00,
2013-03-17 11:38:00,34.1,27.7,30.05,ESE,102,0.0,6.0,77,0.00,,---,0.00,VWS V14.01,2013-03-17 16:38:00,
2013-03-17 11:40:00,34.2,27.8,30.05,ENE,69,2.0,6.0,77,0.00,,---,0.00,VWS V14.01,2013-03-17 16:40:00,
2013-03-17 11:43:00,34.3,27.9,30.05,NE,35,2.0,6.0,77,0.00,,---,0.00,VWS V14.01,2013-03-17 16:43:00,
2013-03-17 11:45:00,34.2,27.4,30.05,SE,140,4.0,6.0,76,0.00,,---,0.00,VWS V14.01,2013-03-17 16:45:00,
2013-03-17 11:48:00,34.2,27.4,30.06,East,100,0.0,7.0,76,0.00,,---,0.00,VWS V14.01,2013-03-17 16:48:00,
2013-03-17 11:50:00,34.2,27.8,30.05,NE,46,3.0,7.0,77,0.00,,---,0.00,VWS V14.01,2013-03-17 16:50:00,
2013-03-17 11:51:00,34.2,27.8,30.06,ENE,61,1.0,7.0,77,0.00,,---,0.00,VWS V14.01,2013-03-17 16:51:00,
2013-03-17 11:53:00,34.2,27.4,30.05,East,87,6.0,9.0,76,0.00,,---,0.00,VWS V14.01,2013-03-17 16:53:00,
2013-03-17 11:54:00,34.2,27.4,30.05,ESE,119,4.0,9.0,76,0.00,,---,0.00,VWS V14.01,2013-03-17 16:54:00,
2013-03-17 11:55:00,34.2,27.4,30.05,ENE,63,3.0,9.0,76,0.00,,---,0.00,VWS V14.01,2013-03-17 16:55:00,
2013-03-17 11:56:00,34.2,27.4,30.05,ESE,123,3.0,9.0,76,0.00,,---,0.00,VWS V14.01,2013-03-17 16:56:00,
2013-03-17 11:58:00,34.3,27.5,30.05,ENE,61,6.0,9.0,76,0.00,,---,0.00,VWS V14.01,2013-03-17 16:58:00,
2013-03-17 11:59:00,34.3,27.5,30.05,East,85,5.0,9.0,76,0.00,,---,0.00,VWS V14.01,2013-03-17 16:59:00,
2013-03-17 12:00:00,34.4,28.0,30.05,NNE,26,3.0,9.0,77,0.00,,---,0.00,VWS V14.01,2013-03-17 17:00:00,
2013-03-17 12:02:00,34.4,28.0,30.04,East,90,1.0,6.0,77,0.00,,---,0.00,VWS V14.01,2013-03-17 17:02:00,
2013-03-17 12:03:00,34.5,28.0,30.04,East,88,2.0,6.0,77,0.00,,---,0.00,VWS V14.01,2013-03-17 17:03:00,
2013-03-17 12:04:00,34.6,28.1,30.05,East,87,0.0,6.0,77,0.00,,---,0.00,VWS V14.01,2013-03-17 17:04:00,
2013-03-17 12:05:00,34.6,28.1,30.04,NE,55,5.0,9.0,77,0.00,,---,0.00,VWS V14.01,2013-03-17 17:05:00,
2013-03-17 12:07:00,34.7,27.9,30.04,ENE,66,3.0,9.0,76,0.00,,---,0.00,VWS V14.01,2013-03-17 17:07:00,
2013-03-17 12:08:00,34.8,28.0,30.04,NE,51,1.0,12.0,76,0.00,,---,0.00,VWS V14.01,2013-03-17 17:08:00,
2013-03-17 12:09:00,34.7,27.9,30.04,SSE,161,3.0,12.0,76,0.00,,---,0.00,VWS V14.01,2013-03-17 17:09:00,
2013-03-17 12:10:00,34.8,28.0,30.04,NNE,22,4.0,12.0,76,0.00,,---,0.00,VWS V14.01,2013-03-17 17:10:00,
2013-03-17 12:12:00,34.9,27.8,30.04,NE,48,4.0,12.0,75,0.00,,---,0.00,VWS V14.01,2013-03-17 17:12:00,
2013-03-17 12:13:00,34.9,27.8,30.04,NNE,30,4.0,12.0,75,0.00,,---,0.00,VWS V14.01,2013-03-17 17:13:00,
2013-03-17 12:14:00,34.9,27.8,30.04,NE,35,3.0,12.0,75,0.00,,---,0.00,VWS V14.01,2013-03-17 17:14:00,
2013-03-17 12:15:00,35.0,27.9,30.04,East,84,0.0,12.0,75,0.00,,---,0.00,VWS V14.01,2013-03-17 17:15:00,
2013-03-17 12:17:00,35.2,28.1,30.04,ESE,108,3.0,12.0,75,0.00,,---,0.00,VWS V14.01,2013-03-17 17:17:00,
2013-03-17 12:18:00,35.2,28.1,30.04,ESE,112,4.0,12.0,75,0.00,,---,0.00,VWS V14.01,2013-03-17 17:18:00,
2013-03-17 12:19:00,35.3,27.9,30.04,SE,142,10.0,12.0,74,0.00,,---,0.00,VWS V14.01,2013-03-17 17:19:00,
2013-03-17 12:20:00,35.4,28.0,30.04,ENE,57,3.0,12.0,74,0.00,,---,0.00,VWS V14.01,2013-03-17 17:20:00,
2013-03-17 12:22:00,35.5,28.0,30.04,ENE,71,1.0,12.0,74,0.00,,---,0.00,VWS V14.01,2013-03-17 17:22:00,
2013-03-17 12:24:00,35.5,28.0,30.04,NNE,26,6.0,12.0,74,0.00,,---,0.00,VWS V14.01,2013-03-17 17:24:00,
2013-03-17 12:26:00,35.7,28.2,30.04,East,98,5.0,12.0,74,0.00,,---,0.00,VWS V14.01,2013-03-17 17:26:00,
2013-03-17 12:27:00,35.8,28.0,30.03,NE,55,1.0,12.0,73,0.00,,---,0.00,VWS V14.01,2013-03-17 17:27:00,
2013-03-17 12:29:00,36.0,28.2,30.03,SSE,148,4.0,12.0,73,0.00,,---,0.00,VWS V14.01,2013-03-17 17:29:00,
2013-03-17 12:31:00,36.1,28.0,30.03,NE,49,3.0,9.0,72,0.00,,---,0.00,VWS V14.01,2013-03-17 17:31:00,
2013-03-17 12:32:00,36.2,28.1,30.03,SE,132,6.0,9.0,72,0.00,,---,0.00,VWS V14.01,2013-03-17 17:32:00,
2013-03-17 12:34:00,36.3,28.1,30.03,NE,45,1.0,9.0,72,0.00,,---,0.00,VWS V14.01,2013-03-17 17:34:00,
2013-03-17 12:37:00,36.5,28.4,30.03,ENE,58,2.0,9.0,72,0.00,,---,0.00,VWS V14.01,2013-03-17 17:37:00,
2013-03-17 12:39:00,36.7,28.5,30.03,NE,34,4.0,9.0,72,0.00,,---,0.00,VWS V14.01,2013-03-17 17:39:00,
2013-03-17 12:42:00,37.2,28.7,30.03,NNE,32,2.0,9.0,71,0.00,,---,0.00,VWS V14.01,2013-03-17 17:42:00,
2013-03-17 12:44:00,37.3,28.4,30.03,ESE,110,3.0,9.0,70,0.00,,---,0.00,VWS V14.01,2013-03-17 17:44:00,
2013-03-17 12:45:00,37.3,28.4,30.03,SE,130,3.0,9.0,70,0.00,,---,0.00,VWS V14.01,2013-03-17 17:45:00,
2013-03-17 12:47:00,37.5,28.6,30.03,ENE,78,1.0,9.0,70,0.00,,---,0.00,VWS V14.01,2013-03-17 17:47:00,
2013-03-17 12:48:00,37.5,28.6,30.02,ENE,59,2.0,9.0,70,0.00,,---,0.00,VWS V14.01,2013-03-17 17:48:00,
2013-03-17 12:49:00,37.7,28.8,30.02,SSW,209,2.0,9.0,70,0.00,,---,0.00,VWS V14.01,2013-03-17 17:49:00,
2013-03-17 12:50:00,37.8,28.9,30.02,NE,38,7.0,9.0,70,0.00,,---,0.00,VWS V14.01,2013-03-17 17:50:00,
2013-03-17 12:53:00,37.9,28.3,30.02,NE,44,10.0,10.0,68,0.00,,---,0.00,VWS V14.01,2013-03-17 17:53:00,
2013-03-17 12:54:00,37.7,28.1,30.02,NNE,19,5.0,12.0,68,0.00,,---,0.00,VWS V14.01,2013-03-17 17:54:00,
2013-03-17 12:55:00,37.5,27.9,30.02,NE,55,2.0,12.0,68,0.00,,---,0.00,VWS V14.01,2013-03-17 17:55:00,
2013-03-17 12:58:00,37.3,28.1,30.01,NE,34,5.0,12.0,69,0.00,,---,0.00,VWS V14.01,2013-03-17 17:58:00,
2013-03-17 12:59:00,37.3,28.1,30.01,NE,54,4.0,12.0,69,0.00,,---,0.00,VWS V14.01,2013-03-17 17:59:00,
2013-03-17 13:00:00,37.3,28.1,30.01,ENE,71,9.0,12.0,69,0.00,,---,0.00,VWS V14.01,2013-03-17 18:00:00,
2013-03-17 13:03:00,37.1,27.9,30.01,SE,128,3.0,10.0,69,0.00,,---,0.00,VWS V14.01,2013-03-17 18:03:00,
2013-03-17 13:04:00,37.0,27.4,30.01,NE,44,12.0,12.0,68,0.00,,---,0.00,VWS V14.01,2013-03-17 18:04:00,
2013-03-17 13:05:00,37.0,27.8,30.01,NE,55,10.0,12.0,69,0.00,,---,0.00,VWS V14.01,2013-03-17 18:05:00,
2013-03-17 13:08:00,37.0,27.8,30.01,NNE,17,5.0,12.0,69,0.00,,---,0.00,VWS V14.01,2013-03-17 18:08:00,
2013-03-17 13:10:00,37.2,28.3,30.00,NE,49,5.0,12.0,70,0.00,,---,0.00,VWS V14.01,2013-03-17 18:10:00,
2013-03-17 13:13:00,37.3,27.7,30.00,NE,44,3.0,12.0,68,0.00,,---,0.00,VWS V14.01,2013-03-17 18:13:00,
2013-03-17 13:14:00,37.3,28.1,30.00,East,99,1.0,12.0,69,0.00,,---,0.00,VWS V14.01,2013-03-17 18:14:00,
2013-03-17 13:15:00,37.3,28.4,30.00,NE,43,6.0,12.0,70,0.00,,---,0.00,VWS V14.01,2013-03-17 18:15:00,
2013-03-17 13:16:00,37.4,28.2,30.00,NNE,28,6.0,12.0,69,0.00,,---,0.00,VWS V14.01,2013-03-17 18:16:00,
2013-03-17 13:18:00,37.6,28.7,30.00,East,79,3.0,12.0,70,0.00,,---,0.00,VWS V14.01,2013-03-17 18:18:00,
2013-03-17 13:19:00,37.7,28.5,30.00,NE,43,4.0,12.0,69,0.00,,---,0.00,VWS V14.01,2013-03-17 18:19:00,
2013-03-17 13:20:00,37.8,28.6,30.00,East,97,2.0,14.0,69,0.00,,---,0.00,VWS V14.01,2013-03-17 18:20:00,
2013-03-17 13:21:00,37.8,28.2,30.00,ESE,121,5.0,14.0,68,0.00,,---,0.00,VWS V14.01,2013-03-17 18:21:00,
2013-03-17 13:24:00,37.6,28.4,30.00,ENE,69,2.0,16.0,69,0.00,,---,0.00,VWS V14.01,2013-03-17 18:24:00,
2013-03-17 13:25:00,37.6,28.4,30.00,NNE,13,6.0,16.0,69,0.00,,---,0.00,VWS V14.01,2013-03-17 18:25:00,
2013-03-17 13:26:00,37.5,28.3,30.00,ENE,71,6.0,16.0,69,0.00,,---,0.00,VWS V14.01,2013-03-17 18:26:00,
2013-03-17 13:29:00,37.3,28.4,30.00,ENE,61,3.0,16.0,70,0.00,,---,0.00,VWS V14.01,2013-03-17 18:29:00,
2013-03-17 13:30:00,37.4,28.5,30.00,ESE,113,6.0,16.0,70,0.00,,---,0.00,VWS V14.01,2013-03-17 18:30:00,
2013-03-17 13:31:00,37.3,28.1,30.00,SE,138,2.0,4.0,69,0.00,,---,0.00,VWS V14.01,2013-03-17 18:31:00,
2013-03-17 13:34:00,37.5,28.6,30.00,NE,40,4.0,10.0,70,0.00,,---,0.00,VWS V14.01,2013-03-17 18:34:00,
2013-03-17 13:35:00,37.5,28.3,30.00,ENE,75,5.0,10.0,69,0.00,,---,0.00,VWS V14.01,2013-03-17 18:35:00,
2013-03-17 13:36:00,37.5,28.6,30.00,North,351,5.0,10.0,70,0.00,,---,0.00,VWS V14.01,2013-03-17 18:36:00,
2013-03-17 13:39:00,37.5,28.6,29.99,NNE,18,6.0,10.0,70,0.00,,---,0.00,VWS V14.01,2013-03-17 18:39:00,
2013-03-17 13:40:00,37.5,28.6,29.99,NNE,33,2.0,10.0,70,0.00,,---,0.00,VWS V14.01,2013-03-17 18:40:00,
2013-03-17 13:42:00,37.5,28.6,29.99,ESE,115,9.0,10.0,70,0.00,,---,0.00,VWS V14.01,2013-03-17 18:42:00,
2013-03-17 13:44:00,37.5,28.3,29.99,ENE,69,0.0,10.0,69,0.00,,---,0.00,VWS V14.01,2013-03-17 18:44:00,
2013-03-17 13:45:00,37.6,28.4,29.99,NE,41,3.0,10.0,69,0.00,,---,0.00,VWS V14.01,2013-03-17 18:45:00,
2013-03-17 13:47:00,37.6,28.7,29.99,East,94,2.0,10.0,70,0.00,,---,0.00,VWS V14.01,2013-03-17 18:47:00,
2013-03-17 13:49:00,37.8,28.9,29.99,NE,51,11.0,11.0,70,0.00,,---,0.00,VWS V14.01,2013-03-17 18:49:00,
2013-03-17 13:50:00,37.8,28.9,29.98,SE,134,4.0,11.0,70,0.00,,---,0.00,VWS V14.01,2013-03-17 18:50:00,
2013-03-17 13:52:00,37.8,28.9,29.98,ESE,103,2.0,11.0,70,0.00,,---,0.00,VWS V14.01,2013-03-17 18:52:00,
2013-03-17 13:54:00,38.0,29.5,29.98,NNE,30,4.0,11.0,71,0.00,,---,0.00,VWS V14.01,2013-03-17 18:54:00,
2013-03-17 13:55:00,38.0,29.5,29.98,North,5,4.0,11.0,71,0.00,,---,0.00,VWS V14.01,2013-03-17 18:55:00,
2013-03-17 13:57:00,38.1,29.2,29.98,North,355,5.0,12.0,70,0.00,,---,0.00,VWS V14.01,2013-03-17 18:57:00,
2013-03-17 13:59:00,38.0,28.8,29.98,ESE,112,6.0,12.0,69,0.00,,---,0.00,VWS V14.01,2013-03-17 18:59:00,
2013-03-17 14:00:00,38.0,28.8,29.97,NNE,18,2.0,12.0,69,0.00,,---,0.00,VWS V14.01,2013-03-17 19:00:00,
2013-03-17 14:02:00,37.9,28.6,29.97,SE,142,3.0,10.0,69,0.00,,---,0.00,VWS V14.01,2013-03-17 19:02:00,
2013-03-17 14:04:00,38.0,29.1,29.97,NE,47,5.0,10.0,70,0.00,,---,0.00,VWS V14.01,2013-03-17 19:04:00,
2013-03-17 14:05:00,38.0,29.1,29.97,NNE,17,3.0,10.0,70,0.00,,---,0.00,VWS V14.01,2013-03-17 19:05:00,
2013-03-17 14:08:00,38.3,29.4,29.98,NE,53,3.0,10.0,70,0.00,,---,0.00,VWS V14.01,2013-03-17 19:08:00,
2013-03-17 14:10:00,38.3,29.0,29.97,ENE,61,4.0,12.0,69,0.00,,---,0.00,VWS V14.01,2013-03-17 19:10:00,
2013-03-17 14:13:00,38.3,29.0,29.97,ENE,67,3.0,12.0,69,0.00,,---,0.00,VWS V14.01,2013-03-17 19:13:00,
2013-03-17 14:15:00,38.4,29.1,29.97,East,90,3.0,12.0,69,0.00,,---,0.00,VWS V14.01,2013-03-17 19:15:00,
2013-03-17 14:18:00,38.4,29.1,29.97,SE,139,3.0,12.0,69,0.00,,---,0.00,VWS V14.01,2013-03-17 19:18:00,
2013-03-17 14:20:00,38.4,29.1,29.96,NE,42,3.0,12.0,69,0.00,,---,0.00,VWS V14.01,2013-03-17 19:20:00,
2013-03-17 14:23:00,38.3,29.0,29.96,ENE,72,7.0,12.0,69,0.00,,---,0.00,VWS V14.01,2013-03-17 19:23:00,
2013-03-17 14:25:00,38.5,29.6,29.96,East,85,2.0,12.0,70,0.00,,---,0.00,VWS V14.01,2013-03-17 19:25:00,
2013-03-17 14:26:00,38.6,29.7,29.96,ENE,76,2.0,12.0,70,0.00,,---,0.00,VWS V14.01,2013-03-17 19:26:00,
2013-03-17 14:28:00,38.8,29.5,29.96,East,82,3.0,12.0,69,0.00,,---,0.00,VWS V14.01,2013-03-17 19:28:00,
2013-03-17 14:30:00,38.8,29.2,29.96,NNE,30,6.0,12.0,68,0.00,,---,0.00,VWS V14.01,2013-03-17 19:30:00,
2013-03-17 14:31:00,38.8,29.2,29.96,NNE,20,8.0,8.0,68,0.00,,---,0.00,VWS V14.01,2013-03-17 19:31:00,
2013-03-17 14:33:00,38.7,29.1,29.95,NNE,24,5.0,9.0,68,0.00,,---,0.00,VWS V14.01,2013-03-17 19:33:00,
2013-03-17 14:35:00,38.7,29.4,29.95,ESE,118,2.0,10.0,69,0.00,,---,0.00,VWS V14.01,2013-03-17 19:35:00,
2013-03-17 14:36:00,38.7,29.4,29.95,East,94,2.0,10.0,69,0.00,,---,0.00,VWS V14.01,2013-03-17 19:36:00,
2013-03-17 14:37:00,38.8,29.5,29.95,SE,141,6.0,10.0,69,0.00,,---,0.00,VWS V14.01,2013-03-17 19:37:00,
2013-03-17 14:38:00,38.9,29.6,29.95,NE,41,5.0,10.0,69,0.00,,---,0.00,VWS V14.01,2013-03-17 19:38:00,
2013-03-17 14:40:00,39.1,29.5,29.95,NE,38,2.0,10.0,68,0.00,,---,0.00,VWS V14.01,2013-03-17 19:40:00,
2013-03-17 14:42:00,39.1,29.5,29.95,NE,52,4.0,10.0,68,0.00,,---,0.00,VWS V14.01,2013-03-17 19:42:00,
2013-03-17 14:43:00,39.1,29.1,29.95,NE,53,3.0,10.0,67,0.00,,---,0.00,VWS V14.01,2013-03-17 19:43:00,
2013-03-17 14:45:00,39.1,29.5,29.95,ENE,74,1.0,10.0,68,0.00,,---,0.00,VWS V14.01,2013-03-17 19:45:00,
2013-03-17 14:47:00,39.0,29.4,29.95,NNE,32,4.0,10.0,68,0.00,,---,0.00,VWS V14.01,2013-03-17 19:47:00,
2013-03-17 14:48:00,39.0,29.0,29.95,NE,46,2.0,10.0,67,0.00,,---,0.00,VWS V14.01,2013-03-17 19:48:00,
2013-03-17 14:50:00,39.1,29.5,29.95,NNE,27,5.0,10.0,68,0.00,,---,0.00,VWS V14.01,2013-03-17 19:50:00,
2013-03-17 14:52:00,39.1,29.5,29.95,ESE,107,5.0,10.0,68,0.00,,---,0.00,VWS V14.01,2013-03-17 19:52:00,
2013-03-17 14:53:00,39.1,29.5,29.95,NE,55,5.0,10.0,68,0.00,,---,0.00,VWS V14.01,2013-03-17 19:53:00,
2013-03-17 14:55:00,39.2,29.2,29.95,ESE,111,1.0,10.0,67,0.00,,---,0.00,VWS V14.01,2013-03-17 19:55:00,
2013-03-17 14:57:00,39.4,29.7,29.95,NNE,26,2.0,10.0,68,0.00,,---,0.00,VWS V14.01,2013-03-17 19:57:00,
2013-03-17 14:58:00,39.4,29.7,29.95,NE,40,2.0,10.0,68,0.00,,---,0.00,VWS V14.01,2013-03-17 19:58:00,
2013-03-17 14:59:00,39.5,29.8,29.95,NNE,33,2.0,10.0,68,0.00,,---,0.00,VWS V14.01,2013-03-17 19:59:00,
2013-03-17 15:00:00,39.7,29.7,29.95,North,355,4.0,10.0,67,0.00,,---,0.00,VWS V14.01,2013-03-17 20:00:00,
2013-03-17 15:02:00,39.6,29.6,29.95,NE,52,5.0,6.0,67,0.00,,---,0.00,VWS V14.01,2013-03-17 20:02:00,
2013-03-17 15:03:00,39.6,29.6,29.95,NE,43,3.0,6.0,67,0.00,,---,0.00,VWS V14.01,2013-03-17 20:03:00,
2013-03-17 15:04:00,39.6,29.6,29.95,ENE,64,3.0,11.0,67,0.00,,---,0.00,VWS V14.01,2013-03-17 20:04:00,
2013-03-17 15:06:00,39.6,29.6,29.94,SE,146,3.0,11.0,67,0.00,,---,0.00,VWS V14.01,2013-03-17 20:06:00,
2013-03-17 15:07:00,39.6,29.6,29.94,NNE,22,6.0,11.0,67,0.00,,---,0.00,VWS V14.01,2013-03-17 20:07:00,
2013-03-17 15:08:00,39.6,29.2,29.94,NE,46,2.0,11.0,66,0.00,,---,0.00,VWS V14.01,2013-03-17 20:08:00,
2013-03-17 15:09:00,39.6,29.2,29.94,East,83,6.0,11.0,66,0.00,,---,0.00,VWS V14.01,2013-03-17 20:09:00,
2013-03-17 15:11:00,39.6,29.6,29.94,East,86,3.0,11.0,67,0.00,,---,0.00,VWS V14.01,2013-03-17 20:11:00,
2013-03-17 15:13:00,39.6,29.6,29.95,ESE,123,4.0,11.0,67,0.00,,---,0.00,VWS V14.01,2013-03-17 20:13:00,
2013-03-17 15:14:00,39.7,29.3,29.95,NNE,25,4.0,11.0,66,0.00,,---,0.00,VWS V14.01,2013-03-17 20:14:00,
2013-03-17 15:16:00,39.7,29.3,29.95,SE,144,4.0,12.0,66,0.00,,---,0.00,VWS V14.01,2013-03-17 20:16:00,
2013-03-17 15:18:00,39.6,29.2,29.95,ENE,63,4.0,12.0,66,0.00,,---,0.00,VWS V14.01,2013-03-17 20:18:00,
2013-03-17 15:19:00,39.7,29.7,29.95,ENE,63,4.0,12.0,67,0.00,,---,0.00,VWS V14.01,2013-03-17 20:19:00,
2013-03-17 15:22:00,39.7,29.7,29.95,NE,45,6.0,12.0,67,0.00,,---,0.00,VWS V14.01,2013-03-17 20:22:00,
2013-03-17 15:23:00,39.8,29.8,29.95,NE,56,9.0,12.0,67,0.00,,---,0.00,VWS V14.01,2013-03-17 20:23:00,
2013-03-17 15:24:00,39.8,29.8,29.95,East,91,2.0,12.0,67,0.00,,---,0.00,VWS V14.01,2013-03-17 20:24:00,
2013-03-17 15:27:00,39.8,29.8,29.95,NNE,27,1.0,12.0,67,0.00,,---,0.00,VWS V14.01,2013-03-17 20:27:00,
2013-03-17 15:28:00,39.9,29.9,29.95,ENE,61,3.0,12.0,67,0.00,,---,0.00,VWS V14.01,2013-03-17 20:28:00,
2013-03-17 15:29:00,39.9,29.9,29.95,ENE,63,2.0,12.0,67,0.00,,---,0.00,VWS V14.01,2013-03-17 20:29:00,
2013-03-17 15:32:00,39.9,29.5,29.95,ESE,122,2.0,11.0,66,0.00,,---,0.00,VWS V14.01,2013-03-17 20:32:00,
2013-03-17 15:33:00,39.9,29.5,29.94,NE,50,3.0,11.0,66,0.00,,---,0.00,VWS V14.01,2013-03-17 20:33:00,
2013-03-17 15:34:00,39.9,29.5,29.94,ENE,71,0.0,11.0,66,0.00,,---,0.00,VWS V14.01,2013-03-17 20:34:00,
2013-03-17 15:35:00,39.9,29.9,29.94,NE,41,3.0,11.0,67,0.00,,---,0.00,VWS V14.01,2013-03-17 20:35:00,
2013-03-17 15:37:00,39.9,29.5,29.94,NNE,28,2.0,11.0,66,0.00,,---,0.00,VWS V14.01,2013-03-17 20:37:00,
2013-03-17 15:38:00,39.9,29.5,29.95,ESE,103,4.0,11.0,66,0.00,,---,0.00,VWS V14.01,2013-03-17 20:38:00,
2013-03-17 15:39:00,39.9,29.5,29.94,ENE,60,3.0,11.0,66,0.00,,---,0.00,VWS V14.01,2013-03-17 20:39:00,
2013-03-17 15:40:00,39.9,29.9,29.95,NNE,18,6.0,11.0,67,0.00,,---,0.00,VWS V14.01,2013-03-17 20:40:00,
2013-03-17 15:42:00,39.8,29.8,29.94,SSE,162,1.0,11.0,67,0.00,,---,0.00,VWS V14.01,2013-03-17 20:42:00,
2013-03-17 15:43:00,39.8,29.8,29.94,SSE,155,4.0,11.0,67,0.00,,---,0.00,VWS V14.01,2013-03-17 20:43:00,
2013-03-17 15:44:00,39.8,29.8,29.94,NE,51,3.0,11.0,67,0.00,,---,0.00,VWS V14.01,2013-03-17 20:44:00,
2013-03-17 15:45:00,39.8,29.8,29.94,ESE,111,2.0,11.0,67,0.00,,---,0.00,VWS V14.01,2013-03-17 20:45:00,
2013-03-17 15:47:00,39.8,29.8,29.94,SE,126,2.0,11.0,67,0.00,,---,0.00,VWS V14.01,2013-03-17 20:47:00,
2013-03-17 15:48:00,39.8,29.8,29.94,SE,128,4.0,11.0,67,0.00,,---,0.00,VWS V14.01,2013-03-17 20:48:00,
2013-03-17 15:49:00,39.8,29.4,29.93,East,82,4.0,11.0,66,0.00,,---,0.00,VWS V14.01,2013-03-17 20:49:00,
2013-03-17 15:50:00,39.7,29.3,29.93,NE,44,4.0,11.0,66,0.00,,---,0.00,VWS V14.01,2013-03-17 20:50:00,
2013-03-17 15:53:00,39.6,29.6,29.93,ENE,66,4.0,11.0,67,0.00,,---,0.00,VWS V14.01,2013-03-17 20:53:00,
2013-03-17 15:54:00,39.6,29.6,29.93,ENE,64,5.0,11.0,67,0.00,,---,0.00,VWS V14.01,2013-03-17 20:54:00,
2013-03-17 15:55:00,39.6,29.6,29.93,East,84,6.0,11.0,67,0.00,,---,0.00,VWS V14.01,2013-03-17 20:55:00,
2013-03-17 15:58:00,39.5,29.5,29.93,SSE,165,4.0,11.0,67,0.00,,---,0.00,VWS V14.01,2013-03-17 20:58:00,
2013-03-17 15:59:00,39.5,29.5,29.93,ESE,111,2.0,11.0,67,0.00,,---,0.00,VWS V14.01,2013-03-17 20:59:00,
2013-03-17 16:00:00,39.4,29.4,29.93,East,91,2.0,11.0,67,0.00,,---,0.00,VWS V14.01,2013-03-17 21:00:00,
2013-03-17 16:03:00,39.4,29.7,29.92,ENE,67,6.0,7.0,68,0.00,,---,0.00,VWS V14.01,2013-03-17 21:03:00,
2013-03-17 16:04:00,39.4,29.4,29.92,NE,55,4.0,12.0,67,0.00,,---,0.00,VWS V14.01,2013-03-17 21:04:00,
2013-03-17 16:05:00,39.4,29.4,29.93,ESE,121,4.0,12.0,67,0.00,,---,0.00,VWS V14.01,2013-03-17 21:05:00,
2013-03-17 16:08:00,39.4,29.7,29.93,East,79,4.0,12.0,68,0.00,,---,0.00,VWS V14.01,2013-03-17 21:08:00,
2013-03-17 16:09:00,39.4,29.7,29.93,ENE,63,3.0,12.0,68,0.00,,---,0.00,VWS V14.01,2013-03-17 21:09:00,
2013-03-17 16:10:00,39.4,29.7,29.93,ENE,61,3.0,12.0,68,0.00,,---,0.00,VWS V14.01,2013-03-17 21:10:00,
2013-03-17 16:13:00,39.4,29.7,29.93,East,90,4.0,12.0,68,0.00,,---,0.00,VWS V14.01,2013-03-17 21:13:00,
2013-03-17 16:14:00,39.4,29.7,29.93,SE,134,1.0,12.0,68,0.00,,---,0.00,VWS V14.01,2013-03-17 21:14:00,
2013-03-17 16:15:00,39.4,29.7,29.93,NE,55,1.0,12.0,68,0.00,,---,0.00,VWS V14.01,2013-03-17 21:15:00,
2013-03-17 16:18:00,39.4,30.1,29.93,NE,36,3.0,12.0,69,0.00,,---,0.00,VWS V14.01,2013-03-17 21:18:00,
2013-03-17 16:19:00,39.4,30.1,29.93,NNE,25,1.0,12.0,69,0.00,,---,0.00,VWS V14.01,2013-03-17 21:19:00,
2013-03-17 16:20:00,39.4,30.1,29.92,East,84,5.0,12.0,69,0.00,,---,0.00,VWS V14.01,2013-03-17 21:20:00,
2013-03-17 16:23:00,39.5,29.8,29.92,East,87,6.0,12.0,68,0.00,,---,0.00,VWS V14.01,2013-03-17 21:23:00,
2013-03-17 16:24:00,39.5,29.8,29.92,East,82,2.0,12.0,68,0.00,,---,0.00,VWS V14.01,2013-03-17 21:24:00,
2013-03-17 16:25:00,39.5,30.2,29.92,NNE,19,5.0,12.0,69,0.00,,---,0.00,VWS V14.01,2013-03-17 21:25:00,
2013-03-17 16:28:00,39.6,29.9,29.92,SE,136,1.0,12.0,68,0.00,,---,0.00,VWS V14.01,2013-03-17 21:28:00,
2013-03-17 16:29:00,39.6,29.9,29.92,NE,49,2.0,12.0,68,0.00,,---,0.00,VWS V14.01,2013-03-17 21:29:00,
2013-03-17 16:30:00,39.6,29.9,29.92,NE,49,3.0,12.0,68,0.00,,---,0.00,VWS V14.01,2013-03-17 21:30:00,
2013-03-17 16:31:00,39.6,29.9,29.92,East,84,3.0,3.0,68,0.00,,---,0.00,VWS V14.01,2013-03-17 21:31:00,
2013-03-17 16:33:00,39.6,29.9,29.91,NE,40,6.0,10.0,68,0.00,,---,0.00,VWS V14.01,2013-03-17 21:33:00,
2013-03-17 16:34:00,39.6,29.9,29.92,ESE,114,4.0,10.0,68,0.00,,---,0.00,VWS V14.01,2013-03-17 21:34:00,
2013-03-17 16:36:00,39.6,29.9,29.91,ESE,117,4.0,10.0,68,0.00,,---,0.00,VWS V14.01,2013-03-17 21:36:00,
2013-03-17 16:38:00,39.6,29.9,29.92,NE,52,7.0,10.0,68,0.00,,---,0.00,VWS V14.01,2013-03-17 21:38:00,
2013-03-17 16:39:00,39.6,29.9,29.92,East,93,1.0,10.0,68,0.00,,---,0.00,VWS V14.01,2013-03-17 21:39:00,
2013-03-17 16:41:00,39.6,29.9,29.92,ESE,107,0.0,10.0,68,0.00,,---,0.00,VWS V14.01,2013-03-17 21:41:00,
2013-03-17 16:43:00,39.6,29.9,29.91,ESE,108,1.0,10.0,68,0.00,,---,0.00,VWS V14.01,2013-03-17 21:43:00,
2013-03-17 16:44:00,39.6,29.9,29.92,NE,55,0.0,10.0,68,0.00,,---,0.00,VWS V14.01,2013-03-17 21:44:00,
2013-03-17 16:46:00,39.6,29.9,29.91,SE,126,4.0,10.0,68,0.00,,---,0.00,VWS V14.01,2013-03-17 21:46:00,
2013-03-17 16:47:00,39.6,29.9,29.91,East,81,0.0,10.0,68,0.00,,---,0.00,VWS V14.01,2013-03-17 21:47:00,
2013-03-17 16:49:00,39.6,29.9,29.91,East,82,4.0,10.0,68,0.00,,---,0.00,VWS V14.01,2013-03-17 21:49:00,
2013-03-17 16:52:00,39.7,30.4,29.91,ESE,113,3.0,10.0,69,0.00,,---,0.00,VWS V14.01,2013-03-17 21:52:00,
2013-03-17 16:54:00,39.7,30.4,29.91,ESE,122,3.0,10.0,69,0.00,,---,0.00,VWS V14.01,2013-03-17 21:54:00,
2013-03-17 16:55:00,39.6,30.3,29.91,ENE,63,2.0,10.0,69,0.00,,---,0.00,VWS V14.01,2013-03-17 21:55:00,
2013-03-17 16:57:00,39.6,30.3,29.91,ESE,117,2.0,10.0,69,0.00,,---,0.00,VWS V14.01,2013-03-17 21:57:00,
2013-03-17 16:59:00,39.6,30.3,29.91,NE,46,3.0,10.0,69,0.00,,---,0.00,VWS V14.01,2013-03-17 21:59:00,
2013-03-17 17:00:00,39.6,30.3,29.91,East,93,4.0,10.0,69,0.00,,---,0.00,VWS V14.01,2013-03-17 22:00:00,
2013-03-17 17:02:00,39.6,29.9,29.92,NE,40,3.0,8.0,68,0.00,,---,0.00,VWS V14.01,2013-03-17 22:02:00,
2013-03-17 17:03:00,39.5,29.8,29.92,NE,51,2.0,8.0,68,0.00,,---,0.00,VWS V14.01,2013-03-17 22:03:00,
2013-03-17 17:04:00,39.5,29.8,29.92,NE,45,2.0,8.0,68,0.00,,---,0.00,VWS V14.01,2013-03-17 22:04:00,
2013-03-17 17:05:00,39.5,29.8,29.92,NE,34,4.0,9.0,68,0.00,,---,0.00,VWS V14.01,2013-03-17 22:05:00,
2013-03-17 17:07:00,39.4,30.1,29.91,NE,50,2.0,9.0,69,0.00,,---,0.00,VWS V14.01,2013-03-17 22:07:00,
2013-03-17 17:08:00,39.4,30.1,29.92,ESE,107,1.0,9.0,69,0.00,,---,0.00,VWS V14.01,2013-03-17 22:08:00,
2013-03-17 17:09:00,39.4,30.1,29.92,SE,128,2.0,9.0,69,0.00,,---,0.00,VWS V14.01,2013-03-17 22:09:00,
2013-03-17 17:10:00,39.4,30.1,29.92,SSE,148,0.0,9.0,69,0.00,,---,0.00,VWS V14.01,2013-03-17 22:10:00,
2013-03-17 17:12:00,39.4,30.1,29.91,NNE,32,2.0,9.0,69,0.00,,---,0.00,VWS V14.01,2013-03-17 22:12:00,
2013-03-17 17:13:00,39.4,30.1,29.91,East,86,3.0,9.0,69,0.00,,---,0.00,VWS V14.01,2013-03-17 22:13:00,
2013-03-17 17:14:00,39.3,30.0,29.91,NNE,22,0.0,9.0,69,0.00,,---,0.00,VWS V14.01,2013-03-17 22:14:00,
2013-03-17 17:15:00,39.3,30.0,29.91,East,92,1.0,9.0,69,0.00,,---,0.00,VWS V14.01,2013-03-17 22:15:00,
2013-03-17 17:18:00,39.3,30.0,29.91,NE,41,2.0,9.0,69,0.00,,---,0.00,VWS V14.01,2013-03-17 22:18:00,
2013-03-17 17:19:00,39.3,30.0,29.91,NNE,16,1.0,10.0,69,0.00,,---,0.00,VWS V14.01,2013-03-17 22:19:00,
2013-03-17 17:20:00,39.3,30.0,29.91,SE,144,3.0,10.0,69,0.00,,---,0.00,VWS V14.01,2013-03-17 22:20:00,
2013-03-17 17:23:00,39.3,30.4,29.91,NNE,23,1.0,10.0,70,0.00,,---,0.00,VWS V14.01,2013-03-17 22:23:00,
2013-03-17 17:24:00,39.2,30.2,29.91,SSE,147,4.0,10.0,70,0.00,,---,0.00,VWS V14.01,2013-03-17 22:24:00,
2013-03-17 17:25:00,39.2,30.2,29.91,NE,52,1.0,10.0,70,0.00,,---,0.00,VWS V14.01,2013-03-17 22:25:00,
2013-03-17 17:28:00,39.3,30.4,29.91,ESE,102,0.0,10.0,70,0.00,,---,0.00,VWS V14.01,2013-03-17 22:28:00,
2013-03-17 17:30:00,39.3,30.7,29.91,NW,306,1.0,10.0,71,0.00,,---,0.00,VWS V14.01,2013-03-17 22:30:00,
2013-03-17 17:33:00,39.3,30.4,29.90,ENE,57,2.0,9.0,70,0.00,,---,0.00,VWS V14.01,2013-03-17 22:33:00,
2013-03-17 17:35:00,39.2,30.2,29.90,ENE,68,3.0,9.0,70,0.00,,---,0.00,VWS V14.01,2013-03-17 22:35:00,
2013-03-17 17:38:00,39.2,30.6,29.89,SSE,158,0.0,9.0,71,0.00,,---,0.00,VWS V14.01,2013-03-17 22:38:00,
2013-03-17 17:40:00,39.2,30.6,29.89,East,91,3.0,9.0,71,0.00,,---,0.00,VWS V14.01,2013-03-17 22:40:00,
2013-03-17 17:43:00,39.2,30.6,29.89,NE,50,2.0,9.0,71,0.00,,---,0.00,VWS V14.01,2013-03-17 22:43:00,
2013-03-17 17:45:00,39.2,30.6,29.89,ESE,121,1.0,9.0,71,0.00,,---,0.00,VWS V14.01,2013-03-17 22:45:00,
2013-03-17 17:48:00,39.2,30.6,29.89,NNE,30,1.0,9.0,71,0.00,,---,0.00,VWS V14.01,2013-03-17 22:48:00,
2013-03-17 17:49:00,39.2,30.6,29.89,North,360,3.0,9.0,71,0.00,,---,0.00,VWS V14.01,2013-03-17 22:49:00,
2013-03-17 17:50:00,39.2,30.2,29.89,East,96,3.0,9.0,70,0.00,,---,0.00,VWS V14.01,2013-03-17 22:50:00,
2013-03-17 17:53:00,39.3,30.4,29.89,North,355,2.0,9.0,70,0.00,,---,0.00,VWS V14.01,2013-03-17 22:53:00,
2013-03-17 17:55:00,39.3,30.4,29.89,East,90,3.0,9.0,70,0.00,,---,0.00,VWS V14.01,2013-03-17 22:55:00,
2013-03-17 17:58:00,39.3,30.4,29.89,ENE,76,5.0,9.0,70,0.00,,---,0.00,VWS V14.01,2013-03-17 22:58:00,
2013-03-17 18:00:00,39.3,30.4,29.89,ENE,76,5.0,9.0,70,0.00,,---,0.00,VWS V14.01,2013-03-17 23:00:00,
2013-03-17 18:01:00,39.3,30.4,29.89,SE,133,4.0,9.0,70,0.00,,---,0.00,VWS V14.01,2013-03-17 23:01:00,
2013-03-17 18:04:00,39.3,30.4,29.89,NNE,22,6.0,13.0,70,0.00,,---,0.00,VWS V14.01,2013-03-17 23:04:00,
2013-03-17 18:05:00,39.2,29.9,29.89,ENE,61,2.0,13.0,69,0.00,,---,0.00,VWS V14.01,2013-03-17 23:05:00,
2013-03-17 18:06:00,39.3,30.0,29.89,NE,36,4.0,13.0,69,0.00,,---,0.00,VWS V14.01,2013-03-17 23:06:00,
2013-03-17 18:09:00,39.2,29.9,29.89,WSW,238,5.0,13.0,69,0.00,,---,0.00,VWS V14.01,2013-03-17 23:09:00,
2013-03-17 18:10:00,39.3,30.0,29.88,NNE,22,0.0,13.0,69,0.00,,---,0.00,VWS V14.01,2013-03-17 23:10:00,
2013-03-17 18:11:00,39.3,30.4,29.88,NNE,22,0.0,13.0,70,0.00,,---,0.00,VWS V14.01,2013-03-17 23:11:00,
2013-03-17 18:12:00,39.2,30.2,29.88,East,92,3.0,13.0,70,0.00,,---,0.00,VWS V14.01,2013-03-17 23:12:00,
2013-03-17 18:14:00,39.2,30.2,29.89,ESE,115,4.0,13.0,70,0.00,,---,0.00,VWS V14.01,2013-03-17 23:14:00,
2013-03-17 18:16:00,39.2,29.9,29.89,SE,129,4.0,13.0,69,0.00,,---,0.00,VWS V14.01,2013-03-17 23:16:00,
2013-03-17 18:17:00,39.2,30.2,29.89,SSE,157,3.0,13.0,70,0.00,,---,0.00,VWS V14.01,2013-03-17 23:17:00,
2013-03-17 18:20:00,39.1,29.8,29.89,ENE,71,2.0,13.0,69,0.00,,---,0.00,VWS V14.01,2013-03-17 23:20:00,
2013-03-17 18:21:00,39.1,29.8,29.89,NE,34,4.0,13.0,69,0.00,,---,0.00,VWS V14.01,2013-03-17 23:21:00,
2013-03-17 18:22:00,39.1,29.8,29.89,East,88,3.0,13.0,69,0.00,,---,0.00,VWS V14.01,2013-03-17 23:22:00,
2013-03-17 18:25:00,39.1,30.2,29.89,SSE,152,4.0,13.0,70,0.00,,---,0.00,VWS V14.01,2013-03-17 23:25:00,
2013-03-17 18:26:00,39.1,30.2,29.89,SE,139,4.0,13.0,70,0.00,,---,0.00,VWS V14.01,2013-03-17 23:26:00,
2013-03-17 18:27:00,39.1,30.2,29.90,ESE,116,2.0,13.0,70,0.00,,---,0.00,VWS V14.01,2013-03-17 23:27:00,
2013-03-17 18:31:00,39.1,30.2,29.90,ESE,115,1.0,4.0,70,0.00,,---,0.00,VWS V14.01,2013-03-17 23:31:00,
2013-03-17 18:32:00,39.1,30.2,29.90,ENE,72,2.0,4.0,70,0.00,,---,0.00,VWS V14.01,2013-03-17 23:32:00,
2013-03-17 18:36:00,39.0,30.1,29.90,ENE,69,3.0,5.0,70,0.00,,---,0.00,VWS V14.01,2013-03-17 23:36:00,
2013-03-17 18:37:00,39.0,30.1,29.90,SE,126,2.0,5.0,70,0.00,,---,0.00,VWS V14.01,2013-03-17 23:37:00,
2013-03-17 18:42:00,39.0,30.4,29.89,North,9,4.0,7.0,71,0.00,,---,0.00,VWS V14.01,2013-03-17 23:42:00,
2013-03-17 18:43:00,38.9,30.3,29.89,SE,146,5.0,7.0,71,0.00,,---,0.00,VWS V14.01,2013-03-17 23:43:00,
2013-03-17 18:47:00,38.9,30.3,29.89,NE,47,0.0,7.0,71,0.00,,---,0.00,VWS V14.01,2013-03-17 23:47:00,
2013-03-17 18:48:00,38.9,30.3,29.89,ENE,71,3.0,7.0,71,0.00,,---,0.00,VWS V14.01,2013-03-17 23:48:00,
2013-03-17 18:52:00,38.9,30.3,29.89,ENE,73,2.0,7.0,71,0.00,,---,0.00,VWS V14.01,2013-03-17 23:52:00,
2013-03-17 18:53:00,38.9,30.3,29.89,NE,44,1.0,7.0,71,0.00,,---,0.00,VWS V14.01,2013-03-17 23:53:00,
2013-03-17 18:57:00,38.8,30.2,29.89,NE,53,0.0,9.0,71,0.00,,---,0.00,VWS V14.01,2013-03-17 23:57:00,
2013-03-17 18:58:00,38.8,30.2,29.89,ENE,78,4.0,9.0,71,0.00,,---,0.00,VWS V14.01,2013-03-17 23:58:00,
2013-03-17 18:59:00,38.8,30.2,29.89,SE,135,2.0,9.0,71,0.00,,---,0.00,VWS V14.01,2013-03-17 23:59:00,
2013-03-17 19:03:00,38.8,30.2,29.89,ESE,107,4.0,10.0,71,0.00,,---,0.00,VWS V14.01,2013-03-18 00:03:00,
2013-03-17 19:04:00,38.8,30.2,29.89,East,99,3.0,10.0,71,0.00,,---,0.00,VWS V14.01,2013-03-18 00:04:00,
2013-03-17 19:08:00,38.7,30.1,29.89,ENE,69,4.0,10.0,71,0.00,,---,0.00,VWS V14.01,2013-03-18 00:08:00,
2013-03-17 19:09:00,38.8,30.2,29.89,ENE,69,1.0,10.0,71,0.00,,---,0.00,VWS V14.01,2013-03-18 00:09:00,
2013-03-17 19:10:00,38.7,30.1,29.89,ENE,72,3.0,10.0,71,0.00,,---,0.00,VWS V14.01,2013-03-18 00:10:00,
2013-03-17 19:13:00,38.7,30.1,29.88,East,93,2.0,10.0,71,0.00,,---,0.00,VWS V14.01,2013-03-18 00:13:00,
2013-03-17 19:14:00,38.7,30.1,29.89,ESE,104,4.0,10.0,71,0.00,,---,0.00,VWS V14.01,2013-03-18 00:14:00,
2013-03-17 19:18:00,38.6,30.0,29.88,ENE,60,1.0,10.0,71,0.00,,---,0.00,VWS V14.01,2013-03-18 00:18:00,
2013-03-17 19:19:00,38.7,30.1,29.88,NE,52,1.0,10.0,71,0.00,,---,0.00,VWS V14.01,2013-03-18 00:19:00,
2013-03-17 19:20:00,38.6,30.0,29.87,East,98,3.0,10.0,71,0.00,,---,0.00,VWS V14.01,2013-03-18 00:20:00,
2013-03-17 19:24:00,38.6,30.0,29.87,ESE,114,3.0,10.0,71,0.00,,---,0.00,VWS V14.01,2013-03-18 00:24:00,
2013-03-17 19:25:00,38.6,30.0,29.87,SE,124,2.0,10.0,71,0.00,,---,0.00,VWS V14.01,2013-03-18 00:25:00,
2013-03-17 19:29:00,38.6,30.0,29.87,SE,138,3.0,10.0,71,0.00,,---,0.00,VWS V14.01,2013-03-18 00:29:00,
2013-03-17 19:30:00,38.6,30.0,29.87,East,90,3.0,11.0,71,0.00,,---,0.00,VWS V14.01,2013-03-18 00:30:00,
2013-03-17 19:34:00,38.5,30.3,29.87,NE,40,5.0,7.0,72,0.00,,---,0.00,VWS V14.01,2013-03-18 00:34:00,
2013-03-17 19:35:00,38.5,30.3,29.87,ESE,117,0.0,7.0,72,0.00,,---,0.00,VWS V14.01,2013-03-18 00:35:00,
2013-03-17 19:39:00,38.5,30.3,29.87,ESE,103,1.0,10.0,72,0.00,,---,0.00,VWS V14.01,2013-03-18 00:39:00,
2013-03-17 19:40:00,38.4,30.2,29.87,ENE,63,0.0,10.0,72,0.00,,---,0.00,VWS V14.01,2013-03-18 00:40:00,
2013-03-17 19:44:00,38.4,30.2,29.87,ESE,107,6.0,10.0,72,0.00,,---,0.00,VWS V14.01,2013-03-18 00:44:00,
2013-03-17 19:45:00,38.4,30.2,29.87,East,98,3.0,10.0,72,0.00,,---,0.00,VWS V14.01,2013-03-18 00:45:00,
2013-03-17 19:49:00,38.4,30.2,29.86,East,84,3.0,10.0,72,0.00,,---,0.00,VWS V14.01,2013-03-18 00:49:00,
2013-03-17 19:51:00,38.3,30.1,29.86,ESE,114,2.0,10.0,72,0.00,,---,0.00,VWS V14.01,2013-03-18 00:51:00,
2013-03-17 19:54:00,38.3,30.4,29.87,NE,49,0.0,10.0,73,0.00,,---,0.00,VWS V14.01,2013-03-18 00:54:00,
2013-03-17 19:55:00,38.3,30.4,29.87,SE,125,3.0,10.0,73,0.00,,---,0.00,VWS V14.01,2013-03-18 00:55:00,
2013-03-17 19:56:00,38.3,30.4,29.87,East,101,1.0,10.0,73,0.00,,---,0.00,VWS V14.01,2013-03-18 00:56:00,
2013-03-17 19:57:00,38.3,30.4,29.87,SSE,161,1.0,10.0,73,0.00,,---,0.00,VWS V14.01,2013-03-18 00:57:00,
2013-03-17 19:59:00,38.3,30.4,29.87,SW,215,1.0,11.0,73,0.00,,---,0.00,VWS V14.01,2013-03-18 00:59:00,
2013-03-17 20:00:00,38.2,30.3,29.86,SE,130,2.0,11.0,73,0.00,,---,0.00,VWS V14.01,2013-03-18 01:00:00,
2013-03-17 20:01:00,38.3,30.4,29.86,ESE,116,5.0,5.0,73,0.00,,---,0.00,VWS V14.01,2013-03-18 01:01:00,
2013-03-17 20:02:00,38.2,30.3,29.86,East,97,5.0,6.0,73,0.00,,---,0.00,VWS V14.01,2013-03-18 01:02:00,
2013-03-17 20:04:00,38.3,30.4,29.85,ENE,70,10.0,10.0,73,0.00,,---,0.00,VWS V14.01,2013-03-18 01:04:00,
2013-03-17 20:05:00,38.2,30.3,29.85,NNW,335,4.0,10.0,73,0.00,,---,0.00,VWS V14.01,2013-03-18 01:05:00,
2013-03-17 20:06:00,38.2,30.3,29.85,NNE,24,4.0,10.0,73,0.00,,---,0.00,VWS V14.01,2013-03-18 01:06:00,
2013-03-17 20:07:00,38.2,30.3,29.85,SSE,147,6.0,10.0,73,0.00,,---,0.00,VWS V14.01,2013-03-18 01:07:00,
2013-03-17 20:09:00,38.2,30.7,29.85,SSW,197,2.0,10.0,74,0.00,,---,0.00,VWS V14.01,2013-03-18 01:09:00,
2013-03-17 20:10:00,38.1,30.6,29.85,SE,134,2.0,10.0,74,0.00,,---,0.00,VWS V14.01,2013-03-18 01:10:00,
2013-03-17 20:11:00,38.1,30.6,29.85,ENE,67,6.0,10.0,74,0.00,,---,0.00,VWS V14.01,2013-03-18 01:11:00,
2013-03-17 20:12:00,38.1,30.6,29.86,SE,136,6.0,10.0,74,0.00,,---,0.00,VWS V14.01,2013-03-18 01:12:00,
2013-03-17 20:14:00,38.1,30.6,29.86,ESE,105,0.0,10.0,74,0.00,,---,0.00,VWS V14.01,2013-03-18 01:14:00,
2013-03-17 20:15:00,38.0,30.8,29.86,East,84,3.0,10.0,75,0.00,,---,0.00,VWS V14.01,2013-03-18 01:15:00,
2013-03-17 20:17:00,38.0,30.8,29.86,SE,142,3.0,10.0,75,0.00,,---,0.00,VWS V14.01,2013-03-18 01:17:00,
2013-03-17 20:19:00,38.0,30.8,29.86,ESE,107,4.0,10.0,75,0.00,,---,0.00,VWS V14.01,2013-03-18 01:19:00,
2013-03-17 20:20:00,38.0,30.8,29.86,East,101,3.0,10.0,75,0.00,,---,0.00,VWS V14.01,2013-03-18 01:20:00,
2013-03-17 20:22:00,37.9,30.7,29.86,East,91,2.0,10.0,75,0.00,,---,0.00,VWS V14.01,2013-03-18 01:22:00,
2013-03-17 20:24:00,37.9,30.7,29.86,ESE,115,4.0,10.0,75,0.00,,---,0.00,VWS V14.01,2013-03-18 01:24:00,
2013-03-17 20:25:00,37.9,30.7,29.86,NNW,346,3.0,10.0,75,0.00,,---,0.00,VWS V14.01,2013-03-18 01:25:00,
2013-03-17 20:27:00,37.8,30.9,29.86,ESE,114,1.0,10.0,76,0.00,,---,0.00,VWS V14.01,2013-03-18 01:27:00,
2013-03-17 20:29:00,37.8,30.9,29.86,ESE,119,3.0,10.0,76,0.00,,---,0.00,VWS V14.01,2013-03-18 01:29:00,
2013-03-17 20:30:00,37.7,30.8,29.86,SSE,158,3.0,10.0,76,0.00,,---,0.00,VWS V14.01,2013-03-18 01:30:00,
2013-03-17 20:32:00,37.7,30.8,29.86,East,89,3.0,5.0,76,0.00,,---,0.00,VWS V14.01,2013-03-18 01:32:00,
2013-03-17 20:34:00,37.6,30.7,29.86,SSE,150,2.0,5.0,76,0.00,,---,0.00,VWS V14.01,2013-03-18 01:34:00,
2013-03-17 20:35:00,37.6,30.7,29.87,SSE,167,3.0,5.0,76,0.00,,---,0.00,VWS V14.01,2013-03-18 01:35:00,
2013-03-17 20:37:00,37.5,30.6,29.86,NE,51,9.0,11.0,76,0.00,,---,0.00,VWS V14.01,2013-03-18 01:37:00,
2013-03-17 20:39:00,37.5,30.6,29.86,ESE,119,5.0,11.0,76,0.00,,---,0.00,VWS V14.01,2013-03-18 01:39:00,
2013-03-17 20:41:00,37.4,30.9,29.86,East,97,2.0,11.0,77,0.00,,---,0.00,VWS V14.01,2013-03-18 01:41:00,
2013-03-17 20:42:00,37.4,30.9,29.85,ESE,121,4.0,11.0,77,0.00,,---,0.00,VWS V14.01,2013-03-18 01:42:00,
2013-03-17 20:45:00,37.3,30.8,29.85,SSE,164,11.0,11.0,77,0.00,,---,0.00,VWS V14.01,2013-03-18 01:45:00,
2013-03-17 20:47:00,37.3,30.8,29.85,SSE,165,3.0,11.0,77,0.00,,---,0.00,VWS V14.01,2013-03-18 01:47:00,
2013-03-17 20:48:00,37.2,30.7,29.85,NNE,24,1.0,11.0,77,0.00,,---,0.00,VWS V14.01,2013-03-18 01:48:00,
2013-03-17 20:50:00,37.2,31.0,29.86,ESE,111,1.0,11.0,78,0.00,,---,0.00,VWS V14.01,2013-03-18 01:50:00,
2013-03-17 20:52:00,37.2,31.0,29.86,ESE,118,1.0,11.0,78,0.00,,---,0.00,VWS V14.01,2013-03-18 01:52:00,
2013-03-17 20:53:00,37.1,30.9,29.86,SE,125,0.0,11.0,78,0.00,,---,0.00,VWS V14.01,2013-03-18 01:53:00,
2013-03-17 20:55:00,37.1,30.9,29.85,East,79,2.0,11.0,78,0.00,,---,0.00,VWS V14.01,2013-03-18 01:55:00,
2013-03-17 20:57:00,37.1,30.9,29.85,NNE,26,5.0,11.0,78,0.00,,---,0.00,VWS V14.01,2013-03-18 01:57:00,
2013-03-17 20:58:00,37.1,30.9,29.85,NE,54,0.0,11.0,78,0.00,,---,0.00,VWS V14.01,2013-03-18 01:58:00,
2013-03-17 21:00:00,37.1,30.9,29.85,ESE,121,3.0,11.0,78,0.00,,---,0.00,VWS V14.01,2013-03-18 02:00:00,
2013-03-17 21:02:00,37.1,30.9,29.85,NE,38,1.0,3.0,78,0.00,,---,0.00,VWS V14.01,2013-03-18 02:02:00,
2013-03-17 21:03:00,37.1,30.9,29.85,North,11,5.0,5.0,78,0.00,,---,0.00,VWS V14.01,2013-03-18 02:03:00,
2013-03-17 21:05:00,37.0,30.8,29.85,ENE,78,1.0,5.0,78,0.00,,---,0.00,VWS V14.01,2013-03-18 02:05:00,
2013-03-17 21:07:00,37.0,30.8,29.85,NNE,24,1.0,9.0,78,0.00,,---,0.00,VWS V14.01,2013-03-18 02:07:00,
2013-03-17 21:08:00,37.0,30.8,29.85,SE,128,4.0,9.0,78,0.00,,---,0.00,VWS V14.01,2013-03-18 02:08:00,
2013-03-17 21:10:00,37.0,30.8,29.85,East,80,4.0,9.0,78,0.00,,---,0.00,VWS V14.01,2013-03-18 02:10:00,
2013-03-17 21:12:00,37.0,30.8,29.85,ENE,63,1.0,9.0,78,0.00,,---,0.00,VWS V14.01,2013-03-18 02:12:00,
2013-03-17 21:13:00,37.0,30.8,29.85,NNE,32,1.0,9.0,78,0.00,,---,0.00,VWS V14.01,2013-03-18 02:13:00,
2013-03-17 21:14:00,37.0,30.8,29.85,ESE,121,5.0,10.0,78,0.00,,---,0.00,VWS V14.01,2013-03-18 02:14:00,
2013-03-17 21:15:00,37.0,30.8,29.84,ESE,115,4.0,10.0,78,0.00,,---,0.00,VWS V14.01,2013-03-18 02:15:00,
2013-03-17 21:18:00,37.0,30.8,29.84,NE,41,0.0,10.0,78,0.00,,---,0.00,VWS V14.01,2013-03-18 02:18:00,
2013-03-17 21:19:00,37.0,30.8,29.84,NE,38,4.0,10.0,78,0.00,,---,0.00,VWS V14.01,2013-03-18 02:19:00,
2013-03-17 21:20:00,37.0,30.8,29.83,ENE,57,12.0,13.0,78,0.00,,---,0.00,VWS V14.01,2013-03-18 02:20:00,
2013-03-17 21:23:00,36.9,31.0,29.84,East,83,2.0,13.0,79,0.00,,---,0.00,VWS V14.01,2013-03-18 02:23:00,
2013-03-17 21:24:00,36.9,31.0,29.83,East,93,2.0,13.0,79,0.00,,---,0.00,VWS V14.01,2013-03-18 02:24:00,
2013-03-17 21:25:00,36.9,31.0,29.84,East,93,2.0,13.0,79,0.00,,---,0.00,VWS V14.01,2013-03-18 02:25:00,
2013-03-17 21:28:00,36.8,30.9,29.84,ESE,116,3.0,13.0,79,0.00,,---,0.00,VWS V14.01,2013-03-18 02:28:00,
2013-03-17 21:29:00,36.8,30.9,29.84,East,85,2.0,13.0,79,0.00,,---,0.00,VWS V14.01,2013-03-18 02:29:00,
2013-03-17 21:31:00,36.8,31.2,29.84,ENE,69,1.0,2.0,80,0.00,,---,0.00,VWS V14.01,2013-03-18 02:31:00,
2013-03-17 21:33:00,36.7,31.1,29.84,ENE,58,2.0,10.0,80,0.00,,---,0.00,VWS V14.01,2013-03-18 02:33:00,
2013-03-17 21:34:00,36.7,31.1,29.84,North,5,3.0,10.0,80,0.00,,---,0.00,VWS V14.01,2013-03-18 02:34:00,
2013-03-17 21:36:00,36.6,31.0,29.85,East,97,1.0,10.0,80,0.00,,---,0.00,VWS V14.01,2013-03-18 02:36:00,
2013-03-17 21:38:00,36.5,31.2,29.85,SE,134,2.0,10.0,81,0.00,,---,0.00,VWS V14.01,2013-03-18 02:38:00,
2013-03-17 21:39:00,36.5,31.2,29.85,NE,49,1.0,10.0,81,0.00,,---,0.00,VWS V14.01,2013-03-18 02:39:00,
2013-03-17 21:42:00,36.5,31.2,29.84,ESE,107,2.0,10.0,81,0.00,,---,0.00,VWS V14.01,2013-03-18 02:42:00,
2013-03-17 21:43:00,36.4,31.1,29.84,ENE,74,2.0,10.0,81,0.00,,---,0.00,VWS V14.01,2013-03-18 02:43:00,
2013-03-17 21:44:00,36.4,31.1,29.84,ESE,121,2.0,10.0,81,0.00,,---,0.00,VWS V14.01,2013-03-18 02:44:00,
2013-03-17 21:47:00,36.3,31.0,29.83,SE,133,2.0,10.0,81,0.00,,---,0.00,VWS V14.01,2013-03-18 02:47:00,
2013-03-17 21:48:00,36.2,30.9,29.83,ENE,76,5.0,10.0,81,0.00,,---,0.00,VWS V14.01,2013-03-18 02:48:00,
2013-03-17 21:49:00,36.2,31.2,29.83,SE,138,5.0,10.0,82,0.00,,---,0.00,VWS V14.01,2013-03-18 02:49:00,
2013-03-17 21:52:00,36.1,31.1,29.84,ESE,118,3.0,10.0,82,0.00,,---,0.00,VWS V14.01,2013-03-18 02:52:00,
2013-03-17 21:53:00,36.1,31.1,29.84,East,82,1.0,10.0,82,0.00,,---,0.00,VWS V14.01,2013-03-18 02:53:00,
2013-03-17 21:54:00,36.1,31.1,29.84,ESE,120,1.0,10.0,82,0.00,,---,0.00,VWS V14.01,2013-03-18 02:54:00,
2013-03-17 21:57:00,36.1,31.1,29.84,SSW,194,0.0,10.0,82,0.00,,---,0.00,VWS V14.01,2013-03-18 02:57:00,
2013-03-17 21:58:00,36.0,31.0,29.84,ESE,114,6.0,10.0,82,0.00,,---,0.00,VWS V14.01,2013-03-18 02:58:00,
2013-03-17 21:59:00,36.0,31.4,29.84,East,83,2.0,10.0,83,0.00,,---,0.00,VWS V14.01,2013-03-18 02:59:00,
2013-03-17 22:00:00,35.9,31.2,29.81,ENE,68,2.0,10.0,83,0.00,,---,0.00,VWS V14.01,2013-03-18 03:00:00,
2013-03-17 22:01:00,35.9,31.2,29.81,SE,136,4.0,4.0,83,0.00,,---,0.00,VWS V14.01,2013-03-18 03:01:00,
2013-03-17 22:02:00,35.9,31.2,29.84,SE,133,0.0,5.0,83,0.00,,---,0.00,VWS V14.01,2013-03-18 03:02:00,
2013-03-17 22:03:00,35.9,31.2,29.84,SE,128,0.0,5.0,83,0.00,,---,0.00,VWS V14.01,2013-03-18 03:03:00,
2013-03-17 22:04:00,35.9,31.2,29.84,ESE,105,2.0,5.0,83,0.00,,---,0.00,VWS V14.01,2013-03-18 03:04:00,
2013-03-17 22:07:00,35.9,31.2,29.84,East,88,2.0,6.0,83,0.00,,---,0.00,VWS V14.01,2013-03-18 03:07:00,
2013-03-17 22:09:00,35.9,31.2,29.84,NE,47,3.0,6.0,83,0.00,,---,0.00,VWS V14.01,2013-03-18 03:09:00,
2013-03-17 22:13:00,35.7,31.4,29.83,NE,42,3.0,7.0,84,0.00,,---,0.00,VWS V14.01,2013-03-18 03:13:00,
2013-03-17 22:14:00,35.7,31.4,29.83,SE,126,3.0,7.0,84,0.00,,---,0.00,VWS V14.01,2013-03-18 03:14:00,
2013-03-17 22:18:00,35.7,31.4,29.83,East,80,6.0,7.0,84,0.00,,---,0.00,VWS V14.01,2013-03-18 03:18:00,
2013-03-17 22:19:00,35.6,31.2,29.83,East,101,1.0,7.0,84,0.00,,---,0.00,VWS V14.01,2013-03-18 03:19:00,
2013-03-17 22:20:00,35.6,31.5,29.83,North,5,4.0,7.0,85,0.00,,---,0.00,VWS V14.01,2013-03-18 03:20:00,
2013-03-17 22:23:00,35.6,31.5,29.83,ENE,70,0.0,7.0,85,0.00,,---,0.00,VWS V14.01,2013-03-18 03:23:00,
2013-03-17 22:24:00,35.6,31.5,29.83,ESE,113,1.0,7.0,85,0.00,,---,0.00,VWS V14.01,2013-03-18 03:24:00,
2013-03-17 22:25:00,35.5,31.5,29.83,ESE,113,0.0,7.0,85,0.00,,---,0.00,VWS V14.01,2013-03-18 03:25:00,
2013-03-17 22:28:00,35.5,31.5,29.83,East,87,2.0,7.0,85,0.00,,---,0.00,VWS V14.01,2013-03-18 03:28:00,
2013-03-17 22:29:00,35.5,31.5,29.83,East,80,1.0,7.0,85,0.00,,---,0.00,VWS V14.01,2013-03-18 03:29:00,
2013-03-17 22:30:00,35.5,31.5,29.83,NNE,28,2.0,7.0,85,0.00,,---,0.00,VWS V14.01,2013-03-18 03:30:00,
2013-03-17 22:33:00,35.5,31.5,29.83,ESE,109,3.0,6.0,85,0.00,,---,0.00,VWS V14.01,2013-03-18 03:33:00,
2013-03-17 22:34:00,35.5,31.5,29.82,NE,49,2.0,6.0,85,0.00,,---,0.00,VWS V14.01,2013-03-18 03:34:00,
2013-03-17 22:35:00,35.5,31.5,29.82,ENE,69,4.0,6.0,85,0.00,,---,0.00,VWS V14.01,2013-03-18 03:35:00,
2013-03-17 22:38:00,35.5,31.5,29.82,ENE,62,0.0,6.0,85,0.00,,---,0.00,VWS V14.01,2013-03-18 03:38:00,
2013-03-17 22:39:00,35.5,31.5,29.82,SE,124,1.0,6.0,85,0.00,,---,0.00,VWS V14.01,2013-03-18 03:39:00,
2013-03-17 22:40:00,35.5,31.5,29.82,ESE,106,0.0,6.0,85,0.00,,---,0.00,VWS V14.01,2013-03-18 03:40:00,
2013-03-17 22:41:00,35.6,31.5,29.82,East,87,2.0,6.0,85,0.00,,---,0.00,VWS V14.01,2013-03-18 03:41:00,
2013-03-17 22:43:00,35.6,31.5,29.82,SE,142,3.0,6.0,85,0.00,,---,0.00,VWS V14.01,2013-03-18 03:43:00,
2013-03-17 22:44:00,35.6,31.5,29.82,ESE,123,1.0,6.0,85,0.00,,---,0.00,VWS V14.01,2013-03-18 03:44:00,
2013-03-17 22:45:00,35.6,31.2,29.82,NE,36,4.0,6.0,84,0.00,,---,0.00,VWS V14.01,2013-03-18 03:45:00,
2013-03-17 22:46:00,35.7,31.4,29.82,NNE,23,2.0,6.0,84,0.00,,---,0.00,VWS V14.01,2013-03-18 03:46:00,
2013-03-17 22:48:00,35.7,31.4,29.82,East,79,1.0,6.0,84,0.00,,---,0.00,VWS V14.01,2013-03-18 03:48:00,
2013-03-17 22:49:00,35.7,31.4,29.82,ESE,115,1.0,6.0,84,0.00,,---,0.00,VWS V14.01,2013-03-18 03:49:00,
2013-03-17 22:50:00,35.8,31.5,29.82,ESE,106,0.0,6.0,84,0.00,,---,0.00,VWS V14.01,2013-03-18 03:50:00,
2013-03-17 22:51:00,35.8,31.5,29.82,ENE,64,1.0,6.0,84,0.00,,---,0.00,VWS V14.01,2013-03-18 03:51:00,
2013-03-17 22:54:00,35.8,31.5,29.82,ESE,104,0.0,6.0,84,0.00,,---,0.00,VWS V14.01,2013-03-18 03:54:00,
2013-03-17 22:55:00,35.8,31.5,29.82,ESE,122,2.0,6.0,84,0.00,,---,0.00,VWS V14.01,2013-03-18 03:55:00,
2013-03-17 22:56:00,35.8,31.5,29.81,SE,126,3.0,6.0,84,0.00,,---,0.00,VWS V14.01,2013-03-18 03:56:00,
2013-03-17 22:59:00,35.9,31.2,29.81,East,98,0.0,6.0,83,0.00,,---,0.00,VWS V14.01,2013-03-18 03:59:00,
2013-03-17 23:03:00,36.0,31.4,29.81,NE,44,2.0,5.0,83,0.00,,---,0.00,VWS V14.01,2013-03-18 04:03:00,
2013-03-17 23:04:00,35.9,31.2,29.81,NNE,28,4.0,6.0,83,0.00,,---,0.00,VWS V14.01,2013-03-18 04:04:00,
2013-03-17 23:08:00,36.0,31.0,29.80,ESE,117,6.0,8.0,82,0.00,,---,0.00,VWS V14.01,2013-03-18 04:08:00,
2013-03-17 23:09:00,36.0,31.0,29.80,East,80,2.0,8.0,82,0.00,,---,0.00,VWS V14.01,2013-03-18 04:09:00,
2013-03-17 23:14:00,36.1,31.1,29.81,East,91,1.0,12.0,82,0.00,,---,0.00,VWS V14.01,2013-03-18 04:14:00,
2013-03-17 23:15:00,36.1,31.1,29.81,SE,130,2.0,12.0,82,0.00,,---,0.00,VWS V14.01,2013-03-18 04:15:00,
2013-03-17 23:19:00,36.0,31.0,29.81,SE,141,6.0,12.0,82,0.00,,---,0.00,VWS V14.01,2013-03-18 04:19:00,
2013-03-17 23:20:00,36.0,31.0,29.81,SE,145,0.0,12.0,82,0.00,,---,0.00,VWS V14.01,2013-03-18 04:20:00,
2013-03-17 23:24:00,35.9,31.0,29.81,ESE,116,2.0,12.0,82,0.00,,---,0.00,VWS V14.01,2013-03-18 04:24:00,
2013-03-17 23:25:00,35.9,31.0,29.81,NNE,19,3.0,12.0,82,0.00,,---,0.00,VWS V14.01,2013-03-18 04:25:00,
2013-03-17 23:29:00,35.9,31.2,29.81,NE,50,3.0,13.0,83,0.00,,---,0.00,VWS V14.01,2013-03-18 04:29:00,
2013-03-17 23:30:00,35.9,31.2,29.81,SE,135,4.0,13.0,83,0.00,,---,0.00,VWS V14.01,2013-03-18 04:30:00,
2013-03-17 23:34:00,35.8,31.1,29.81,NE,47,3.0,8.0,83,0.00,,---,0.00,VWS V14.01,2013-03-18 04:34:00,
2013-03-17 23:35:00,35.8,31.1,29.81,SE,144,3.0,8.0,83,0.00,,---,0.00,VWS V14.01,2013-03-18 04:35:00,
2013-03-17 23:39:00,35.8,31.1,29.80,NE,53,0.0,8.0,83,0.00,,---,0.00,VWS V14.01,2013-03-18 04:39:00,
2013-03-17 23:40:00,35.8,31.1,29.80,East,86,1.0,8.0,83,0.00,,---,0.00,VWS V14.01,2013-03-18 04:40:00,
2013-03-17 23:41:00,35.8,31.1,29.80,ESE,113,0.0,8.0,83,0.00,,---,0.00,VWS V14.01,2013-03-18 04:41:00,
2013-03-17 23:44:00,35.7,31.0,29.80,ESE,113,2.0,8.0,83,0.00,,---,0.00,VWS V14.01,2013-03-18 04:44:00,
2013-03-17 23:45:00,35.7,31.0,29.79,East,97,1.0,8.0,83,0.00,,---,0.00,VWS V14.01,2013-03-18 04:45:00,
2013-03-17 23:46:00,35.7,31.0,29.79,NNE,33,6.0,8.0,83,0.00,,---,0.00,VWS V14.01,2013-03-18 04:46:00,
2013-03-17 23:50:00,35.7,31.0,29.79,NE,43,7.0,8.0,83,0.00,,---,0.00,VWS V14.01,2013-03-18 04:50:00,
2013-03-17 23:51:00,35.7,31.0,29.80,ENE,78,5.0,8.0,83,0.00,,---,0.00,VWS V14.01,2013-03-18 04:51:00,
2013-03-17 23:55:00,35.7,31.0,29.79,NNE,17,3.0,8.0,83,0.00,,---,0.00,VWS V14.01,2013-03-18 04:55:00,
2013-03-17 23:56:00,35.7,31.0,29.79,East,95,0.0,8.0,83,0.00,,---,0.00,VWS V14.01,2013-03-18 04:56:00,